KC5DAQ-28 Weather Reports


Display with metric or nautical units.
time (UTC)temp
F
wind
direction
speed
MPH
gust
MPH
rain 1hr
in
rain 24hr
in
rain mn
in
humidity
%
barometer
mb
20260508151831 69 28 4.0 12.0 0.00 0.00 0.00 85 1007.3
20260508151723 69 31 5.0 12.0 0.00 0.00 0.00 85 1007.3
20260508151618 69 25 6.0 12.0 0.00 0.00 0.00 85 1007.4
20260508151512 69 35 6.0 12.0 0.00 0.00 0.00 85 1007.4
20260508151410 69 34 6.0 12.0 0.00 0.00 0.00 85 1007.3
20260508151309 69 65 6.0 12.0 0.00 0.00 0.00 85 1007.4
20260508151206 69 45 5.0 12.0 0.00 0.00 0.00 85 1007.5
20260508151104 69 48 5.0 11.0 0.00 0.00 0.00 85 1007.5
20260508151003 68 30 4.0 11.0 0.00 0.00 0.00 85 1007.4
20260508150902 68 23 6.0 11.0 0.00 0.00 0.00 85 1007.5
20260508150804 68 21 6.0 11.0 0.00 0.00 0.00 85 1007.4
20260508150702 68 0 6.0 11.0 0.00 0.00 0.00 85 1007.4
20260508150601 68 55 5.0 11.0 0.00 0.00 0.00 85 1007.4
20260508150501 68 21 5.0 11.0 0.00 0.00 0.00 85 1007.3
20260508150403 68 0 6.0 11.0 0.00 0.00 0.00 85 1007.3
20260508150301 68 38 7.0 11.0 0.00 0.00 0.00 85 1007.2
20260508150204 68 18 8.0 11.0 0.00 0.00 0.00 85 1007.2
20260508150003 68 4 7.0 11.0 0.00 0.00 0.00 85 1007.3
20260508145902 68 7 6.0 11.0 0.00 0.00 0.00 85 1007.3
20260508145802 68 7 6.0 9.0 0.00 0.00 0.00 85 1007.3
20260508145701 68 345 6.0 9.0 0.00 0.00 0.00 85 1007.3
20260508145601 68 0 7.0 10.0 0.00 0.00 0.00 85 1007.3
20260508145502 68 17 6.0 10.0 0.00 0.00 0.00 85 1007.3
20260508145403 68 340 5.0 11.0 0.00 0.00 0.00 85 1007.4
20260508145306 68 0 5.0 11.0 0.00 0.00 0.00 85 1007.3
20260508145203 68 14 4.0 11.0 0.00 0.00 0.00 85 1007.5
20260508145101 68 21 4.0 11.0 0.00 0.00 0.00 85 1007.4
20260508145001 68 0 5.0 11.0 0.00 0.00 0.00 85 1007.5
20260508144901 68 343 6.0 11.0 0.00 0.00 0.00 85 1007.5
20260508144801 68 0 7.0 11.0 0.00 0.00 0.00 85 1007.5
20260508144703 68 347 7.0 11.0 0.00 0.00 0.00 85 1007.4
20260508144600 69 0 7.0 11.0 0.00 0.00 0.00 85 1007.5
20260508144503 69 336 7.0 11.0 0.00 0.00 0.00 86 1007.6
20260508144401 69 0 5.0 11.0 0.00 0.00 0.00 86 1007.5
20260508144303 69 0 5.0 11.0 0.00 0.00 0.00 86 1007.4
20260508144203 69 11 5.0 11.0 0.00 0.00 0.00 86 1007.3
20260508144103 69 0 5.0 11.0 0.00 0.00 0.00 86 1007.3
20260508144000 69 348 5.0 11.0 0.00 0.00 0.00 86 1007.2
20260508143901 69 0 5.0 11.0 0.00 0.00 0.00 86 1007.3
20260508143801 69 38 6.0 11.0 0.00 0.00 0.00 86 1007.3
20260508143700 68 0 5.0 11.0 0.00 0.00 0.00 86 1007.3
20260508143602 68 358 6.0 11.0 0.00 0.00 0.00 86 1007.3
20260508143500 68 0 7.0 11.0 0.00 0.00 0.00 86 1007.3
20260508143402 68 4 7.0 11.0 0.00 0.00 0.00 86 1007.4
20260508143301 68 18 7.0 11.0 0.00 0.00 0.00 86 1007.3
20260508143200 68 353 6.0 11.0 0.00 0.00 0.00 86 1007.3
20260508143100 69 11 6.0 11.0 0.00 0.00 0.00 86 1007.3
20260508143002 69 8 6.0 11.0 0.00 0.00 0.00 86 1007.2
20260508142902 69 4 6.0 11.0 0.00 0.00 0.00 87 1007.2
20260508142801 69 39 5.0 7.0 0.00 0.00 0.00 87 1007.3
20260508142702 69 343 5.0 7.0 0.00 0.00 0.00 87 1007.3
20260508142601 69 62 5.0 7.0 0.00 0.00 0.00 87 1007.3
20260508142501 69 0 4.0 7.0 0.00 0.00 0.00 87 1007.3
20260508142401 69 0 5.0 7.0 0.00 0.00 0.00 87 1007.3
20260508142300 69 6 5.0 7.0 0.00 0.00 0.00 87 1007.3
20260508142200 69 354 5.0 7.0 0.00 0.00 0.00 87 1007.3
20260508142100 69 0 4.0 7.0 0.00 0.00 0.00 87 1007.3
20260508142001 69 23 4.0 7.0 0.00 0.00 0.00 87 1007.3
20260508141900 69 354 5.0 7.0 0.00 0.00 0.00 87 1007.2
20260508141802 69 0 5.0 7.0 0.00 0.00 0.00 87 1007.2
20260508141702 69 14 4.0 7.0 0.00 0.00 0.00 87 1007.2
20260508141601 69 0 4.0 7.0 0.00 0.00 0.00 87 1007.3
20260508141502 69 351 5.0 7.0 0.00 0.00 0.00 87 1007.3
20260508141401 69 14 5.0 7.0 0.00 0.00 0.00 87 1007.3
20260508141301 69 11 4.0 7.0 0.00 0.00 0.00 87 1007.4
20260508141201 69 0 4.0 7.0 0.00 0.00 0.00 87 1007.4
20260508141100 69 6 5.0 7.0 0.00 0.00 0.00 87 1007.4
20260508141001 69 341 5.0 7.0 0.00 0.00 0.00 87 1007.4
20260508140901 69 331 4.0 7.0 0.00 0.00 0.00 87 1007.3
20260508140800 69 343 4.0 6.0 0.00 0.00 0.00 88 1007.3
20260508140701 69 0 4.0 6.0 0.00 0.00 0.00 88 1007.4
20260508140600 69 1 4.0 6.0 0.00 0.00 0.00 88 1007.3
20260508140501 69 3 3.0 5.0 0.00 0.00 0.00 88 1007.2
20260508140401 68 13 3.0 5.0 0.00 0.00 0.00 87 1007.2
20260508140302 68 13 4.0 5.0 0.00 0.00 0.00 87 1007.3
20260508140201 69 11 4.0 5.0 0.00 0.00 0.00 88 1007.3
20260508140101 68 8 3.0 5.0 0.00 0.00 0.00 88 1007.3
20260508140001 68 32 2.0 4.0 0.00 0.00 0.00 88 1007.4
20260508135900 68 34 2.0 4.0 0.00 0.00 0.00 88 1007.3
20260508135802 68 38 2.0 4.0 0.00 0.00 0.00 88 1007.4
20260508135700 68 38 1.0 4.0 0.00 0.00 0.00 88 1007.4
20260508135602 68 38 1.0 4.0 0.00 0.00 0.00 88 1007.4
20260508135501 68 38 2.0 4.0 0.00 0.00 0.00 88 1007.4
20260508135400 68 38 2.0 4.0 0.00 0.00 0.00 88 1007.4
20260508135305 68 38 1.0 5.0 0.00 0.00 0.00 88 1007.4
20260508135159 68 38 2.0 5.0 0.00 0.00 0.00 88 1007.4
20260508135100 68 38 2.0 5.0 0.00 0.00 0.00 88 1007.3
20260508134959 68 38 2.0 5.0 0.00 0.00 0.00 88 1007.3
20260508134900 68 38 2.0 5.0 0.00 0.00 0.00 88 1007.3
20260508134801 69 32 1.0 5.0 0.00 0.00 0.00 88 1007.4
20260508134701 68 11 1.0 5.0 0.00 0.00 0.00 88 1007.3
20260508134601 68 7 2.0 5.0 0.00 0.00 0.00 88 1007.3
20260508134500 68 7 3.0 5.0 0.00 0.00 0.00 88 1007.3
20260508134402 68 7 3.0 5.0 0.00 0.00 0.00 88 1007.3
20260508134300 68 6 3.0 5.0 0.00 0.00 0.00 88 1007.3
20260508134201 68 0 3.0 5.0 0.00 0.00 0.00 88 1007.1
20260508134059 68 0 2.0 4.0 0.00 0.00 0.00 88 1007.2
20260508134000 68 31 2.0 4.0 0.00 0.00 0.00 88 1007.2
20260508133859 68 18 2.0 4.0 0.00 0.00 0.00 88 1007.3
20260508133800 68 16 1.0 4.0 0.00 0.00 0.00 88 1007.2
20260508133701 68 17 1.0 4.0 0.00 0.00 0.00 88 1007.3
20260508133601 68 17 1.0 4.0 0.00 0.00 0.00 88 1007.2
20260508133501 68 14 2.0 4.0 0.00 0.00 0.00 88 1007.3
20260508133401 68 13 3.0 4.0 0.00 0.00 0.00 88 1007.2
20260508133300 68 13 4.0 4.0 0.00 0.00 0.00 88 1007.3
20260508133201 68 14 3.0 4.0 0.00 0.00 0.00 88 1007.2
20260508133059 68 0 3.0 4.0 0.00 0.00 0.00 88 1007.2
20260508133000 68 8 3.0 5.0 0.00 0.00 0.00 88 1007.1
20260508132900 68 10 3.0 5.0 0.00 0.00 0.00 87 1007.1
20260508132800 68 10 2.0 5.0 0.00 0.00 0.00 87 1007.0
20260508132702 68 10 2.0 5.0 0.00 0.00 0.00 87 1007.0
20260508132602 68 10 2.0 5.0 0.00 0.00 0.00 87 1007.0
20260508132500 68 10 2.0 5.0 0.00 0.00 0.00 87 1006.9
20260508132359 68 8 3.0 5.0 0.00 0.00 0.00 87 1007.0
20260508132259 68 0 4.0 5.0 0.00 0.00 0.00 86 1007.0
20260508132202 68 345 4.0 5.0 0.00 0.00 0.00 86 1007.0
20260508132059 68 348 4.0 5.0 0.00 0.00 0.00 86 1007.0
20260508132000 68 348 5.0 5.0 0.00 0.00 0.00 86 1007.1
20260508131900 68 343 4.0 9.0 0.00 0.00 0.00 86 1007.1
20260508131800 68 341 4.0 10.0 0.00 0.00 0.00 86 1007.1
20260508131700 69 357 4.0 10.0 0.00 0.00 0.00 86 1007.1
20260508131600 69 343 3.0 10.0 0.00 0.00 0.00 86 1007.2
20260508131500 69 87 1.0 10.0 0.00 0.00 0.00 86 1007.2
20260508131359 69 99 1.0 10.0 0.00 0.00 0.00 86 1007.2
20260508131259 69 99 2.0 10.0 0.00 0.00 0.00 85 1007.2
20260508131159 69 99 3.0 10.0 0.00 0.00 0.00 85 1007.2
20260508131100 69 99 6.0 10.0 0.00 0.00 0.00 85 1007.3
20260508131000 69 75 6.0 10.0 0.00 0.00 0.00 85 1007.2
20260508130900 69 103 6.0 10.0 0.00 0.00 0.00 85 1007.2
20260508130759 69 85 5.0 9.0 0.00 0.00 0.00 85 1007.1
20260508130700 69 107 6.0 9.0 0.00 0.00 0.00 85 1007.1
20260508130600 69 106 6.0 9.0 0.00 0.00 0.00 85 1007.1
20260508130458 69 103 6.0 9.0 0.00 0.00 0.00 85 1007.1
20260508130359 69 83 5.0 7.0 0.00 0.00 0.00 85 1007.2
20260508130259 69 118 4.0 7.0 0.00 0.00 0.00 85 1007.1
20260508130200 69 104 4.0 7.0 0.00 0.00 0.00 85 1007.2
20260508130059 69 106 4.0 7.0 0.00 0.00 0.00 85 1007.1
20260508125959 69 103 4.0 7.0 0.00 0.00 0.00 85 1007.1
20260508125900 69 117 3.0 7.0 0.00 0.00 0.00 85 1007.1
20260508125758 69 97 4.0 7.0 0.00 0.00 0.00 85 1007.0
20260508125658 69 94 4.0 7.0 0.00 0.00 0.00 85 1007.1
20260508125558 69 90 4.0 7.0 0.00 0.00 0.00 85 1006.9
20260508125500 69 92 4.0 7.0 0.00 0.00 0.00 85 1007.0
20260508125359 69 85 4.0 7.0 0.00 0.00 0.00 85 1007.1
20260508125259 69 90 3.0 6.0 0.00 0.00 0.00 85 1007.1
20260508125200 69 82 3.0 6.0 0.00 0.00 0.00 85 1007.1
20260508125101 69 94 4.0 6.0 0.00 0.00 0.00 85 1007.2
20260508125000 68 96 4.0 6.0 0.00 0.00 0.00 85 1007.2
20260508124900 69 86 2.0 6.0 0.00 0.00 0.00 85 1007.2
20260508124758 68 83 2.0 6.0 0.00 0.00 0.00 85 1007.1
20260508124658 69 83 2.0 6.0 0.00 0.00 0.00 85 1007.0
20260508124601 68 83 3.0 6.0 0.00 0.00 0.00 85 1007.1
20260508124459 68 79 4.0 6.0 0.00 0.00 0.00 85 1007.1
20260508124359 68 71 4.0 6.0 0.00 0.00 0.00 85 1006.9
20260508124259 68 103 4.0 6.0 0.00 0.00 0.00 85 1006.9
20260508124159 68 94 3.0 4.0 0.00 0.00 0.00 85 1007.0
20260508124100 68 99 2.0 4.0 0.00 0.00 0.00 85 1007.0
20260508123959 68 90 0.0 4.0 0.00 0.00 0.00 85 1006.9
20260508123858 68 90 0.0 4.0 0.00 0.00 0.00 85 1006.9
20260508123758 68 90 2.0 4.0 0.00 0.00 0.00 85 1007.0
20260508123658 68 90 2.0 4.0 0.00 0.00 0.00 85 1007.0
20260508123559 68 92 2.0 4.0 0.00 0.00 0.00 85 1006.9
20260508123459 68 93 2.0 4.0 0.00 0.00 0.00 85 1006.9
20260508123400 68 94 2.0 4.0 0.00 0.00 0.00 85 1006.9
20260508123300 68 102 3.0 4.0 0.00 0.00 0.00 85 1006.9
20260508123158 68 104 2.0 5.0 0.00 0.00 0.00 85 1006.9
20260508123058 68 120 2.0 5.0 0.00 0.00 0.00 85 1007.0
20260508122959 68 17 1.0 5.0 0.00 0.00 0.00 85 1007.0
20260508122858 68 14 1.0 5.0 0.00 0.00 0.00 85 1007.2
20260508122800 68 14 2.0 5.0 0.00 0.00 0.00 85 1007.2
20260508122657 68 16 3.0 5.0 0.00 0.00 0.00 85 1007.3
20260508122557 68 16 2.0 5.0 0.00 0.00 0.00 85 1007.2
20260508122457 68 13 2.0 5.0 0.00 0.00 0.00 85 1007.2
20260508122359 68 14 2.0 5.0 0.00 0.00 0.00 85 1007.3
20260508122258 68 13 2.0 5.0 0.00 0.00 0.00 85 1007.2
20260508122157 68 14 3.0 5.0 0.00 0.00 0.00 85 1007.1
20260508122058 68 13 3.0 5.0 0.00 0.00 0.00 85 1007.1
20260508121958 68 21 3.0 5.0 0.00 0.00 0.00 85 1007.1
20260508121858 68 23 3.0 5.0 0.00 0.00 0.00 85 1007.1
20260508121758 68 25 3.0 5.0 0.00 0.00 0.00 85 1007.1
20260508121659 68 38 3.0 5.0 0.00 0.00 0.00 85 1007.0
20260508121559 68 18 3.0 5.0 0.00 0.00 0.00 85 1007.1
20260508121457 68 37 2.0 5.0 0.00 0.00 0.00 85 1007.1
20260508121400 68 16 2.0 5.0 0.00 0.00 0.00 85 1007.1
20260508121257 68 18 3.0 5.0 0.00 0.00 0.00 85 1007.2
20260508121159 68 18 3.0 5.0 0.00 0.00 0.00 85 1007.2
20260508121057 68 0 3.0 5.0 0.00 0.00 0.00 85 1007.3
20260508121000 68 31 3.0 5.0 0.00 0.00 0.00 85 1007.3
20260508120858 68 0 2.0 5.0 0.00 0.00 0.00 85 1007.4
20260508120757 68 27 1.0 5.0 0.00 0.00 0.00 85 1007.3
20260508120700 68 27 2.0 5.0 0.00 0.00 0.00 85 1007.3
20260508120557 68 27 1.0 5.0 0.00 0.00 0.00 85 1007.3
20260508120459 68 30 0.0 5.0 0.00 0.00 0.00 85 1007.3
20260508120359 68 30 2.0 6.0 0.00 0.00 0.00 85 1007.3
20260508120259 68 30 3.0 6.0 0.00 0.00 0.00 85 1007.1
20260508120159 68 35 3.0 7.0 0.00 0.00 0.00 85 1007.1
20260508120058 68 38 4.0 7.0 0.00 0.00 0.00 85 1007.3
20260508115957 68 63 3.0 7.0 0.00 0.00 0.00 85 1007.3
20260508115857 68 58 2.0 9.0 0.00 0.00 0.00 85 1007.3
20260508115756 68 41 3.0 9.0 0.00 0.00 0.00 85 1007.3
20260508115658 68 49 3.0 9.0 0.00 0.00 0.00 85 1007.3
20260508115558 68 16 4.0 9.0 0.00 0.00 0.00 85 1007.4
20260508115458 68 16 5.0 9.0 0.00 0.00 0.00 85 1007.5
20260508115358 68 0 5.0 9.0 0.00 0.00 0.00 85 1007.6
20260508115258 68 354 5.0 9.0 0.00 0.00 0.00 85 1007.6
20260508115158 68 351 5.0 9.0 0.00 0.00 0.00 85 1007.7
20260508115057 68 344 6.0 9.0 0.00 0.00 0.00 85 1007.8
20260508114956 68 343 6.0 9.0 0.00 0.00 0.00 85 1007.8
20260508114851 68 341 4.0 6.0 0.00 0.00 0.00 85 1007.8
20260508114750 68 357 3.0 5.0 0.00 0.00 0.00 85 1007.9
20260508114646 68 0 4.0 6.0 0.00 0.00 0.00 85 1008.0
20260508114544 68 0 5.0 6.0 0.00 0.00 0.00 85 1008.0
20260508114441 68 348 5.0 6.0 0.00 0.00 0.00 85 1008.0
20260508114337 68 8 4.0 6.0 0.00 0.00 0.00 85 1008.0
20260508114232 68 357 5.0 6.0 0.00 0.00 0.00 85 1008.1
20260508114134 68 343 4.0 6.0 0.00 0.00 0.00 85 1008.0
20260508114032 68 337 4.0 6.0 0.00 0.00 0.00 85 1008.1
20260508113931 68 324 4.0 6.0 0.00 0.00 0.00 85 1008.1
20260508113831 68 326 5.0 6.0 0.00 0.00 0.00 85 1008.0
20260508113732 68 337 4.0 6.0 0.00 0.00 0.00 85 1008.0
20260508113629 68 336 5.0 6.0 0.00 0.00 0.00 85 1007.9
20260508113520 68 336 5.0 7.0 0.00 0.00 0.00 85 1008.0
20260508113404 68 343 5.0 7.0 0.00 0.00 0.00 85 1007.9
20260508113303 68 338 5.0 7.0 0.00 0.00 0.00 85 1007.9
20260508113203 68 348 4.0 7.0 0.00 0.00 0.00 85 1008.0
20260508113102 68 354 4.0 7.0 0.00 0.00 0.00 85 1008.0
20260508113005 68 357 4.0 7.0 0.00 0.00 0.00 85 1007.9
20260508112903 68 340 4.0 7.0 0.00 0.00 0.00 85 1007.9
20260508112802 68 341 5.0 7.0 0.00 0.00 0.00 85 1007.9
20260508112702 68 354 5.0 7.0 0.00 0.00 0.00 85 1007.8
20260508112603 68 0 5.0 7.0 0.00 0.00 0.00 85 1007.8
20260508112504 68 345 4.0 6.0 0.00 0.00 0.00 85 1007.8
20260508112404 68 343 4.0 6.0 0.00 0.00 0.00 85 1007.8
20260508112306 68 0 4.0 6.0 0.00 0.00 0.00 85 1007.8
20260508112202 68 354 4.0 6.0 0.00 0.00 0.00 85 1007.7
20260508112104 68 0 4.0 5.0 0.00 0.00 0.00 84 1007.6
20260508112005 68 92 3.0 5.0 0.00 0.00 0.00 84 1007.7
20260508111904 68 92 2.0 5.0 0.00 0.00 0.00 84 1007.6
20260508111803 68 93 1.0 5.0 0.00 0.00 0.00 84 1007.5
20260508111703 68 93 1.0 5.0 0.00 0.00 0.00 84 1007.4
20260508111604 68 93 1.0 5.0 0.00 0.00 0.00 84 1007.3
20260508111504 68 93 1.0 5.0 0.00 0.00 0.00 84 1007.3
20260508111401 68 93 1.0 5.0 0.00 0.00 0.00 84 1007.2
20260508111303 68 93 2.0 5.0 0.00 0.00 0.00 84 1007.2
20260508111203 68 93 2.0 5.0 0.00 0.00 0.00 84 1007.1
20260508111103 68 86 2.0 4.0 0.00 0.00 0.00 84 1007.1
20260508111003 68 99 2.0 4.0 0.00 0.00 0.00 84 1007.1
20260508110904 68 99 1.0 5.0 0.00 0.00 0.00 84 1007.1
20260508110802 68 99 0.0 5.0 0.00 0.00 0.00 84 1007.1
20260508110704 68 99 1.0 5.0 0.00 0.00 0.00 84 1007.1
20260508110603 68 99 2.0 5.0 0.00 0.00 0.00 84 1007.0
20260508110503 68 100 3.0 5.0 0.00 0.00 0.00 84 1006.9
20260508110402 68 100 3.0 5.0 0.00 0.00 0.00 84 1006.9
20260508110302 68 100 2.0 5.0 0.00 0.00 0.00 84 1007.0
20260508110204 68 99 3.0 5.0 0.00 0.00 0.00 84 1006.9
20260508110005 68 100 4.0 5.0 0.00 0.00 0.00 84 1006.8
20260508105905 68 103 4.0 5.0 0.00 0.00 0.00 84 1006.8
20260508105759 68 109 4.0 5.0 0.00 0.00 0.00 84 1006.8
20260508105657 68 104 3.0 5.0 0.00 0.00 0.00 84 1006.8
20260508105556 68 106 3.0 5.0 0.00 0.00 0.00 84 1006.8
20260508105455 68 76 4.0 5.0 0.00 0.00 0.00 84 1006.8
20260508105357 68 107 3.0 5.0 0.00 0.00 0.00 84 1006.9
20260508105256 68 90 2.0 5.0 0.00 0.00 0.00 84 1006.9
20260508105157 68 83 2.0 6.0 0.00 0.00 0.00 84 1006.9
20260508105055 68 82 2.0 6.0 0.00 0.00 0.00 84 1006.9
20260508104956 68 78 2.0 6.0 0.00 0.00 0.00 84 1006.9
20260508104857 68 73 1.0 7.0 0.00 0.00 0.00 84 1006.9
20260508104757 68 73 2.0 7.0 0.00 0.00 0.00 84 1006.9
20260508104655 68 73 3.0 7.0 0.00 0.00 0.00 84 1006.8
20260508104555 68 68 2.0 7.0 0.00 0.00 0.00 84 1006.9
20260508104456 68 76 2.0 7.0 0.00 0.00 0.00 83 1006.8
20260508104357 68 85 3.0 7.0 0.00 0.00 0.00 83 1006.8
20260508104257 68 92 4.0 7.0 0.00 0.00 0.00 83 1006.7
20260508104157 68 86 4.0 7.0 0.00 0.00 0.00 83 1006.8
20260508104056 68 96 4.0 7.0 0.00 0.00 0.00 83 1006.8
20260508103956 68 100 4.0 7.0 0.00 0.00 0.00 83 1006.7
20260508103855 68 103 4.0 7.0 0.00 0.00 0.00 83 1006.6
20260508103757 68 110 4.0 7.0 0.00 0.00 0.00 83 1006.6
20260508103655 68 68 4.0 7.0 0.00 0.00 0.00 83 1006.6
20260508103555 68 106 3.0 7.0 0.00 0.00 0.00 83 1006.6
20260508103457 68 116 3.0 7.0 0.00 0.00 0.00 83 1006.6
20260508103355 68 89 3.0 7.0 0.00 0.00 0.00 83 1006.5
20260508103257 68 45 2.0 7.0 0.00 0.00 0.00 83 1006.6
20260508103156 68 56 2.0 7.0 0.00 0.00 0.00 82 1006.6
20260508103055 68 71 3.0 7.0 0.00 0.00 0.00 82 1006.6
20260508102957 68 66 3.0 7.0 0.00 0.00 0.00 82 1006.7
20260508102856 68 28 4.0 7.0 0.00 0.00 0.00 82 1006.9
20260508102758 68 0 4.0 9.0 0.00 0.00 0.00 82 1006.9
20260508102657 68 27 4.0 9.0 0.00 0.00 0.00 82 1006.9
20260508102555 68 38 4.0 9.0 0.00 0.00 0.00 82 1007.1
20260508102455 68 16 5.0 9.0 0.00 0.00 0.00 82 1007.1
20260508102356 68 34 4.0 9.0 0.00 0.00 0.00 82 1007.1
20260508102255 68 23 4.0 9.0 0.00 0.00 0.00 82 1007.1
20260508102155 68 0 4.0 9.0 0.00 0.00 0.00 82 1007.2
20260508102057 68 347 4.0 9.0 0.00 0.00 0.00 82 1007.2
20260508101956 68 0 5.0 9.0 0.00 0.00 0.00 82 1007.1
20260508101857 68 357 6.0 9.0 0.00 0.00 0.00 82 1007.1
20260508101756 68 347 5.0 7.0 0.00 0.00 0.00 82 1007.1
20260508101654 68 329 5.0 7.0 0.00 0.00 0.00 82 1007.1
20260508101556 68 353 6.0 7.0 0.00 0.00 0.00 82 1007.2
20260508101455 68 0 6.0 7.0 0.00 0.00 0.00 82 1007.2
20260508101357 68 338 6.0 7.0 0.00 0.00 0.00 82 1007.3
20260508101255 68 345 5.0 7.0 0.00 0.00 0.00 82 1007.3
20260508101154 68 337 4.0 5.0 0.00 0.00 0.00 82 1007.3
20260508101054 68 350 4.0 5.0 0.00 0.00 0.00 82 1007.3
20260508100955 68 336 4.0 5.0 0.00 0.00 0.00 82 1007.2
20260508100854 68 357 2.0 5.0 0.00 0.00 0.00 82 1007.2
20260508100755 68 21 2.0 5.0 0.00 0.00 0.00 82 1007.2
20260508100656 68 23 2.0 5.0 0.00 0.00 0.00 82 1007.2
20260508100554 68 11 2.0 5.0 0.00 0.00 0.00 81 1007.2
20260508100456 68 11 2.0 6.0 0.00 0.00 0.00 81 1007.1
20260508100355 68 3 2.0 6.0 0.00 0.00 0.00 81 1007.3
20260508100254 68 3 2.0 7.0 0.00 0.00 0.00 81 1007.3
20260508100156 68 0 3.0 7.0 0.00 0.00 0.00 81 1007.4
20260508100032 68 338 4.0 7.0 0.00 0.00 0.00 81 1007.6
20260508095933 68 337 4.0 7.0 0.00 0.00 0.00 81 1007.6
20260508095831 68 326 3.0 7.0 0.00 0.00 0.00 81 1007.6
20260508095730 68 316 4.0 7.0 0.00 0.00 0.00 81 1007.6
20260508095633 68 337 5.0 7.0 0.00 0.00 0.00 81 1007.5
20260508095530 68 343 5.0 7.0 0.00 0.00 0.00 81 1007.4
20260508095432 69 341 5.0 7.0 0.00 0.00 0.00 81 1007.4
20260508095331 69 353 4.0 6.0 0.00 0.00 0.00 81 1007.3
20260508095229 69 0 4.0 6.0 0.00 0.00 0.00 81 1007.3
20260508095122 69 358 3.0 6.0 0.00 0.00 0.00 81 1007.3
20260508095021 69 0 3.0 6.0 0.00 0.00 0.00 81 1007.3
20260508094920 69 3 4.0 6.0 0.00 0.00 0.00 81 1007.2
20260508094810 69 34 4.0 9.0 0.00 0.00 0.00 81 1007.2
20260508094706 69 18 4.0 10.0 0.00 0.00 0.00 81 1007.1
20260508094603 69 358 4.0 10.0 0.00 0.00 0.00 81 1007.0
20260508094503 68 23 3.0 10.0 0.00 0.00 0.00 81 1006.9
20260508094402 68 31 3.0 10.0 0.00 0.00 0.00 81 1007.0
20260508094303 68 27 3.0 10.0 0.00 0.00 0.00 81 1007.0
20260508094203 68 4 4.0 11.0 0.00 0.00 0.00 81 1007.1
20260508094104 68 13 5.0 11.0 0.00 0.00 0.00 81 1007.2
20260508094002 68 23 5.0 11.0 0.00 0.00 0.00 81 1007.2
20260508093903 68 0 7.0 11.0 0.00 0.00 0.00 81 1007.3
20260508093803 68 353 6.0 11.0 0.00 0.00 0.00 81 1007.3
20260508093703 68 0 5.0 11.0 0.00 0.00 0.00 81 1007.3
20260508093603 68 11 5.0 11.0 0.00 0.00 0.00 81 1007.2
20260508093503 68 11 5.0 11.0 0.00 0.00 0.00 81 1007.1
20260508093402 68 355 6.0 11.0 0.00 0.00 0.00 81 1007.1
20260508093302 68 13 6.0 11.0 0.00 0.00 0.00 81 1007.1
20260508093203 68 11 5.0 10.0 0.00 0.00 0.00 81 1007.2
20260508093103 68 0 5.0 10.0 0.00 0.00 0.00 81 1007.1
20260508093003 68 10 5.0 10.0 0.00 0.00 0.00 81 1007.1
20260508092902 69 25 4.0 10.0 0.00 0.00 0.00 81 1007.1
20260508092803 68 0 4.0 10.0 0.00 0.00 0.00 81 1007.1
20260508092703 68 39 4.0 10.0 0.00 0.00 0.00 81 1007.1
20260508092603 68 20 5.0 10.0 0.00 0.00 0.00 81 1007.1
20260508092502 68 10 4.0 10.0 0.00 0.00 0.00 81 1007.1
20260508092403 68 0 5.0 10.0 0.00 0.00 0.00 81 1007.1
20260508092312 69 0 6.0 10.0 0.00 0.00 0.00 81 1007.1
20260508092203 69 0 6.0 10.0 0.00 0.00 0.00 81 1007.1
20260508092102 69 344 7.0 10.0 0.00 0.00 0.00 81 1007.1
20260508092006 69 353 7.0 9.0 0.00 0.00 0.00 81 1007.1
20260508091902 69 3 7.0 9.0 0.00 0.00 0.00 81 1007.1
20260508091804 69 331 6.0 9.0 0.00 0.00 0.00 81 1007.1
20260508091704 69 355 5.0 9.0 0.00 0.00 0.00 81 1007.1
20260508091602 69 347 5.0 9.0 0.00 0.00 0.00 81 1007.0
20260508091502 69 0 6.0 9.0 0.00 0.00 0.00 81 1007.0
20260508091403 69 0 4.0 6.0 0.00 0.00 0.00 81 1006.9
20260508091304 69 347 3.0 5.0 0.00 0.00 0.00 81 1006.9
20260508091202 69 355 2.0 5.0 0.00 0.00 0.00 81 1006.8
20260508091103 69 38 1.0 5.0 0.00 0.00 0.00 81 1006.7
20260508091002 69 38 1.0 5.0 0.00 0.00 0.00 81 1006.6
20260508090903 69 38 3.0 6.0 0.00 0.00 0.00 81 1006.5
20260508090803 69 73 2.0 6.0 0.00 0.00 0.00 81 1006.5
20260508090703 69 86 2.0 6.0 0.00 0.00 0.00 81 1006.4
20260508090604 69 92 2.0 6.0 0.00 0.00 0.00 81 1006.5
20260508090504 69 93 2.0 6.0 0.00 0.00 0.00 81 1006.5
20260508090404 69 103 2.0 6.0 0.00 0.00 0.00 81 1006.6
20260508090301 69 104 2.0 6.0 0.00 0.00 0.00 81 1006.5
20260508090203 68 106 2.0 6.0 0.00 0.00 0.00 81 1006.5
20260508090104 69 107 3.0 6.0 0.00 0.00 0.00 81 1006.4
20260508090005 69 38 2.0 6.0 0.00 0.00 0.00 81 1006.4
20260508085904 69 78 1.0 6.0 0.00 0.00 0.00 81 1006.5
20260508085802 69 78 2.0 7.0 0.00 0.00 0.00 81 1006.5
20260508085703 69 78 2.0 7.0 0.00 0.00 0.00 81 1006.4
20260508085602 69 68 1.0 7.0 0.00 0.00 0.00 81 1006.4
20260508085504 69 61 1.0 7.0 0.00 0.00 0.00 81 1006.3
20260508085401 68 61 2.0 7.0 0.00 0.00 0.00 81 1006.3
20260508085306 69 80 2.0 7.0 0.00 0.00 0.00 81 1006.3
20260508085202 69 79 2.0 7.0 0.00 0.00 0.00 81 1006.2
20260508085102 68 80 3.0 7.0 0.00 0.00 0.00 81 1006.3
20260508085006 68 86 4.0 7.0 0.00 0.00 0.00 81 1006.2
20260508084903 69 71 4.0 7.0 0.00 0.00 0.00 81 1006.3
20260508084803 69 100 4.0 7.0 0.00 0.00 0.00 81 1006.3
20260508084703 68 59 4.0 7.0 0.00 0.00 0.00 81 1006.4
20260508084603 69 38 4.0 7.0 0.00 0.00 0.00 81 1006.4
20260508084501 68 73 4.0 7.0 0.00 0.00 0.00 81 1006.5
20260508084355 68 61 3.0 6.0 0.00 0.00 0.00 81 1006.6
20260508084254 68 61 3.0 6.0 0.00 0.00 0.00 81 1006.7
20260508084153 68 61 3.0 6.0 0.00 0.00 0.00 81 1006.7
20260508084054 68 66 3.0 7.0 0.00 0.00 0.00 81 1006.8
20260508083953 68 45 3.0 7.0 0.00 0.00 0.00 81 1006.9
20260508083853 68 44 3.0 7.0 0.00 0.00 0.00 81 1006.9
20260508083754 68 34 2.0 7.0 0.00 0.00 0.00 81 1007.0
20260508083652 68 31 3.0 7.0 0.00 0.00 0.00 81 1007.0
20260508083554 68 11 4.0 7.0 0.00 0.00 0.00 81 1007.1
20260508083453 68 20 4.0 7.0 0.00 0.00 0.00 81 1007.0
20260508083354 68 0 4.0 7.0 0.00 0.00 0.00 81 1007.1
20260508083253 68 30 5.0 7.0 0.00 0.00 0.00 81 1007.1
20260508083154 68 18 5.0 7.0 0.00 0.00 0.00 81 1007.1
20260508083053 68 10 4.0 6.0 0.00 0.00 0.00 81 1007.1
20260508082953 68 16 3.0 6.0 0.00 0.00 0.00 81 1007.1
20260508082854 69 23 2.0 6.0 0.00 0.00 0.00 81 1007.2
20260508082754 68 13 2.0 6.0 0.00 0.00 0.00 81 1007.2
20260508082652 68 16 4.0 6.0 0.00 0.00 0.00 81 1007.2
20260508082552 68 21 4.0 7.0 0.00 0.00 0.00 81 1007.2
20260508082455 69 24 3.0 7.0 0.00 0.00 0.00 81 1007.2
20260508082352 68 24 4.0 7.0 0.00 0.00 0.00 81 1007.2
20260508082254 68 8 4.0 7.0 0.00 0.00 0.00 81 1007.2
20260508082154 68 14 4.0 7.0 0.00 0.00 0.00 81 1007.3
20260508082052 68 31 4.0 7.0 0.00 0.00 0.00 81 1007.2
20260508081952 68 28 3.0 7.0 0.00 0.00 0.00 81 1007.3
20260508081853 68 16 4.0 7.0 0.00 0.00 0.00 81 1007.2
20260508081753 68 0 5.0 7.0 0.00 0.00 0.00 81 1007.2
20260508081653 68 8 5.0 7.0 0.00 0.00 0.00 81 1007.2
20260508081553 68 0 4.0 6.0 0.00 0.00 0.00 81 1007.2
20260508081454 68 10 3.0 6.0 0.00 0.00 0.00 81 1007.1
20260508081352 68 11 3.0 6.0 0.00 0.00 0.00 81 1007.1
20260508081253 68 14 4.0 6.0 0.00 0.00 0.00 81 1007.1
20260508081153 68 16 4.0 6.0 0.00 0.00 0.00 81 1007.1
20260508081054 68 14 3.0 6.0 0.00 0.00 0.00 81 1007.1
20260508080953 69 18 3.0 6.0 0.00 0.00 0.00 81 1007.1
20260508080853 68 17 3.0 6.0 0.00 0.00 0.00 81 1007.2
20260508080753 68 13 3.0 6.0 0.00 0.00 0.00 81 1007.1
20260508080652 68 11 3.0 6.0 0.00 0.00 0.00 81 1007.1
20260508080553 68 11 4.0 6.0 0.00 0.00 0.00 81 1007.1
20260508080453 68 32 4.0 5.0 0.00 0.00 0.00 81 1007.1
20260508080352 68 23 4.0 6.0 0.00 0.00 0.00 81 1007.0
20260508080253 68 13 3.0 6.0 0.00 0.00 0.00 81 1007.0
20260508080154 68 0 3.0 6.0 0.00 0.00 0.00 81 1007.0
20260508080052 68 18 4.0 6.0 0.00 0.00 0.00 81 1007.0
20260508075952 68 31 4.0 6.0 0.00 0.00 0.00 81 1007.1
20260508075853 68 0 3.0 7.0 0.00 0.00 0.00 81 1007.1
20260508075753 68 17 3.0 7.0 0.00 0.00 0.00 81 1007.1
20260508075652 68 4 4.0 7.0 0.00 0.00 0.00 81 1007.0
20260508075552 68 7 4.0 7.0 0.00 0.00 0.00 81 1007.1
20260508075452 68 23 4.0 7.0 0.00 0.00 0.00 81 1007.0
20260508075353 68 18 4.0 7.0 0.00 0.00 0.00 81 1007.0
20260508075252 68 18 4.0 7.0 0.00 0.00 0.00 81 1007.0
20260508075153 68 0 4.0 7.0 0.00 0.00 0.00 80 1007.0
20260508075053 68 20 4.0 7.0 0.00 0.00 0.00 80 1006.9
20260508074952 69 11 4.0 7.0 0.00 0.00 0.00 80 1007.0
20260508074852 69 42 4.0 6.0 0.00 0.00 0.00 80 1007.0
20260508074753 68 14 4.0 6.0 0.00 0.00 0.00 80 1007.0
20260508074652 69 11 4.0 7.0 0.00 0.00 0.00 80 1007.1
20260508074553 69 41 4.0 7.0 0.00 0.00 0.00 80 1007.0
20260508074454 69 34 4.0 7.0 0.00 0.00 0.00 80 1007.2
20260508074351 69 24 4.0 7.0 0.00 0.00 0.00 80 1007.3
20260508074251 69 14 4.0 7.0 0.00 0.00 0.00 80 1007.2
20260508074151 69 31 5.0 7.0 0.00 0.00 0.00 80 1007.3
20260508074053 69 16 4.0 7.0 0.00 0.00 0.00 80 1007.4
20260508073953 69 14 4.0 7.0 0.00 0.00 0.00 80 1007.4
20260508073852 69 358 4.0 7.0 0.00 0.00 0.00 80 1007.5
20260508073751 69 350 5.0 7.0 0.00 0.00 0.00 80 1007.5
20260508073651 69 355 5.0 7.0 0.00 0.00 0.00 80 1007.5
20260508073551 69 0 5.0 7.0 0.00 0.00 0.00 80 1007.6
20260508073451 69 0 6.0 7.0 0.00 0.00 0.00 80 1007.5
20260508073351 69 355 6.0 7.0 0.00 0.00 0.00 80 1007.5
20260508073251 69 353 5.0 7.0 0.00 0.00 0.00 80 1007.6
20260508073153 69 351 5.0 7.0 0.00 0.00 0.00 80 1007.6
20260508073049 69 0 5.0 7.0 0.00 0.00 0.00 80 1007.6
20260508072948 69 0 5.0 7.0 0.00 0.00 0.00 80 1007.5
20260508072847 69 3 4.0 7.0 0.00 0.00 0.00 80 1007.7
20260508072745 69 0 3.0 7.0 0.00 0.00 0.00 80 1007.7
20260508072644 69 10 3.0 7.0 0.00 0.00 0.00 80 1007.6
20260508072534 69 11 4.0 7.0 0.00 0.00 0.00 80 1007.6
20260508072432 69 0 3.0 7.0 0.00 0.00 0.00 80 1007.6
20260508072332 69 351 3.0 7.0 0.00 0.00 0.00 80 1007.6
20260508072232 69 351 5.0 9.0 0.00 0.00 0.00 80 1007.6
20260508072131 69 17 5.0 9.0 0.00 0.00 0.00 80 1007.6
20260508072032 69 0 4.0 9.0 0.00 0.00 0.00 80 1007.7
20260508071928 69 345 5.0 9.0 0.00 0.00 0.00 80 1007.7
20260508071819 69 0 4.0 9.0 0.00 0.00 0.00 80 1007.8
20260508071715 69 0 4.0 9.0 0.00 0.00 0.00 80 1007.7
20260508071608 69 0 5.0 9.0 0.00 0.00 0.00 79 1007.8
20260508071503 69 344 6.0 9.0 0.00 0.00 0.00 79 1007.7
20260508071403 69 347 6.0 9.0 0.00 0.00 0.00 79 1007.7
20260508071303 69 341 5.0 7.0 0.00 0.00 0.00 79 1007.6
20260508071201 69 355 4.0 6.0 0.00 0.00 0.00 79 1007.6
20260508071102 69 355 4.0 6.0 0.00 0.00 0.00 79 1007.6
20260508071002 69 358 4.0 6.0 0.00 0.00 0.00 79 1007.6
20260508070903 69 0 5.0 6.0 0.00 0.00 0.00 79 1007.6
20260508070804 69 0 5.0 6.0 0.00 0.00 0.00 79 1007.5
20260508070702 69 0 4.0 6.0 0.00 0.00 0.00 79 1007.6
20260508070603 69 0 4.0 6.0 0.00 0.00 0.00 79 1007.6
20260508070505 69 4 3.0 5.0 0.00 0.00 0.00 79 1007.6
20260508070403 69 4 3.0 4.0 0.00 0.00 0.00 79 1007.7
20260508070305 69 10 2.0 4.0 0.00 0.00 0.00 79 1007.6
20260508070203 69 10 2.0 5.0 0.00 0.00 0.00 79 1007.7
20260508070002 69 11 2.0 5.0 0.00 0.00 0.00 79 1007.7
20260508065904 69 11 2.0 5.0 0.00 0.00 0.00 79 1007.6
20260508065802 69 13 3.0 5.0 0.00 0.00 0.00 79 1007.6
20260508065704 69 13 3.0 5.0 0.00 0.00 0.00 79 1007.6
20260508065604 69 13 3.0 5.0 0.00 0.00 0.00 79 1007.6
20260508065504 69 14 3.0 5.0 0.00 0.00 0.00 79 1007.6
20260508065404 69 14 4.0 5.0 0.00 0.00 0.00 79 1007.6
20260508065306 69 0 3.0 5.0 0.00 0.00 0.00 79 1007.6
20260508065202 69 0 3.0 5.0 0.00 0.00 0.00 79 1007.6
20260508065103 69 0 3.0 5.0 0.00 0.00 0.00 79 1007.6
20260508065005 69 0 2.0 5.0 0.00 0.00 0.00 79 1007.7
20260508064904 69 0 2.0 5.0 0.00 0.00 0.00 79 1007.7
20260508064804 69 0 4.0 5.0 0.00 0.00 0.00 79 1007.8
20260508064704 69 351 4.0 5.0 0.00 0.00 0.00 79 1007.7
20260508064604 69 347 4.0 5.0 0.00 0.00 0.00 79 1007.8
20260508064505 69 347 4.0 5.0 0.00 0.00 0.00 79 1007.8
20260508064404 69 358 4.0 5.0 0.00 0.00 0.00 79 1007.9
20260508064303 69 337 4.0 5.0 0.00 0.00 0.00 80 1007.9
20260508064203 69 13 3.0 4.0 0.00 0.00 0.00 80 1007.8
20260508064102 69 14 3.0 4.0 0.00 0.00 0.00 79 1007.8
20260508064003 70 14 3.0 4.0 0.00 0.00 0.00 79 1007.8
20260508063903 70 16 3.0 4.0 0.00 0.00 0.00 79 1007.8
20260508063803 70 16 3.0 4.0 0.00 0.00 0.00 79 1007.9
20260508063702 69 37 3.0 4.0 0.00 0.00 0.00 79 1007.8
20260508063602 70 38 3.0 3.0 0.00 0.00 0.00 79 1007.8
20260508063504 69 38 3.0 3.0 0.00 0.00 0.00 79 1007.8
20260508063403 69 38 3.0 3.0 0.00 0.00 0.00 79 1007.9
20260508063302 69 58 2.0 3.0 0.00 0.00 0.00 79 1007.9
20260508063202 69 58 3.0 3.0 0.00 0.00 0.00 79 1007.8
20260508063102 69 58 2.0 3.0 0.00 0.00 0.00 79 1007.8
20260508063003 69 59 2.0 2.0 0.00 0.00 0.00 79 1007.7
20260508062905 69 59 2.0 2.0 0.00 0.00 0.00 79 1007.6
20260508062803 69 59 2.0 2.0 0.00 0.00 0.00 79 1007.5
20260508062704 69 59 1.0 2.0 0.00 0.00 0.00 79 1007.4
20260508062603 69 59 1.0 2.0 0.00 0.00 0.00 79 1007.5
20260508062504 69 59 1.0 2.0 0.00 0.00 0.00 79 1007.4
20260508062404 69 59 1.0 2.0 0.00 0.00 0.00 79 1007.5
20260508062306 69 59 2.0 2.0 0.00 0.00 0.00 79 1007.4
20260508062203 69 59 1.0 2.0 0.00 0.00 0.00 79 1007.4
20260508062102 69 59 1.0 2.0 0.00 0.00 0.00 79 1007.4
20260508062003 69 59 1.0 2.0 0.00 0.00 0.00 79 1007.5
20260508061904 69 59 1.0 2.0 0.00 0.00 0.00 79 1007.5
20260508061804 69 59 1.0 2.0 0.00 0.00 0.00 79 1007.5
20260508061702 69 59 1.0 2.0 0.00 0.00 0.00 79 1007.6
20260508061602 69 59 1.0 2.0 0.00 0.00 0.00 79 1007.5
20260508061502 69 59 1.0 3.0 0.00 0.00 0.00 79 1007.6
20260508061402 69 59 1.0 3.0 0.00 0.00 0.00 79 1007.5
20260508061303 69 59 1.0 3.0 0.00 0.00 0.00 79 1007.5
20260508061203 69 59 0.0 3.0 0.00 0.00 0.00 79 1007.5
20260508061103 69 59 0.0 3.0 0.00 0.00 0.00 79 1007.5
20260508061002 69 59 1.0 3.0 0.00 0.00 0.00 79 1007.4
20260508060902 69 59 2.0 3.0 0.00 0.00 0.00 79 1007.4
20260508060803 69 59 1.0 3.0 0.00 0.00 0.00 79 1007.3
20260508060702 69 59 1.0 3.0 0.00 0.00 0.00 78 1007.3
20260508060602 69 59 1.0 3.0 0.00 0.00 0.00 78 1007.2
20260508060504 69 59 1.0 3.0 0.00 0.00 0.00 78 1007.3
20260508060404 69 59 1.0 3.0 0.00 0.00 0.00 78 1007.4
20260508060302 69 59 2.0 3.0 0.00 0.00 0.00 78 1007.3
20260508060202 69 59 1.0 3.0 0.00 0.00 0.00 78 1007.4
20260508060004 69 59 1.0 2.0 0.00 0.00 0.00 78 1007.4
20260508055902 69 59 1.0 2.0 0.00 0.00 0.00 78 1007.5
20260508055802 69 59 0.0 2.0 0.00 0.00 0.00 78 1007.4
20260508055704 69 59 0.0 2.0 0.00 0.00 0.00 78 1007.4
20260508055603 69 59 1.0 2.0 0.00 0.00 0.00 78 1007.4
20260508055502 70 59 0.0 2.0 0.00 0.00 0.00 78 1007.4
20260508055403 70 59 1.0 2.0 0.00 0.00 0.00 77 1007.4
20260508055306 70 59 1.0 2.0 0.00 0.00 0.00 77 1007.5
20260508055202 70 59 1.0 2.0 0.00 0.00 0.00 77 1007.5
20260508055103 70 59 1.0 4.0 0.00 0.00 0.00 77 1007.6
20260508055002 70 59 0.0 4.0 0.00 0.00 0.00 77 1007.7
20260508054902 70 59 1.0 4.0 0.00 0.00 0.00 77 1007.7
20260508054803 70 59 1.0 4.0 0.00 0.00 0.00 77 1007.7
20260508054703 70 59 1.0 4.0 0.00 0.00 0.00 77 1007.6
20260508054602 70 59 1.0 4.0 0.00 0.00 0.00 77 1007.6
20260508054503 70 59 1.0 4.0 0.00 0.00 0.00 77 1007.7
20260508054405 70 59 2.0 4.0 0.00 0.00 0.00 77 1007.6
20260508054302 70 59 2.0 4.0 0.00 0.00 0.00 77 1007.6
20260508054203 70 59 2.0 4.0 0.00 0.00 0.00 77 1007.6
20260508054103 70 59 2.0 3.0 0.00 0.00 0.00 77 1007.6
20260508054004 70 59 1.0 3.0 0.00 0.00 0.00 77 1007.7
20260508053904 70 59 0.0 3.0 0.00 0.00 0.00 77 1007.6
20260508053802 70 59 0.0 3.0 0.00 0.00 0.00 77 1007.6
20260508053705 70 59 1.0 3.0 0.00 0.00 0.00 76 1007.6
20260508053603 70 59 2.0 3.0 0.00 0.00 0.00 77 1007.6
20260508053503 70 59 2.0 3.0 0.00 0.00 0.00 77 1007.5
20260508053402 70 59 1.0 3.0 0.00 0.00 0.00 77 1007.4
20260508053304 70 59 2.0 3.0 0.00 0.00 0.00 76 1007.3
20260508053204 70 59 1.0 3.0 0.00 0.00 0.00 76 1007.4
20260508053104 70 62 0.0 1.0 0.00 0.00 0.00 76 1007.3
20260508053004 70 62 0.0 3.0 0.00 0.00 0.00 76 1007.4
20260508052904 70 62 0.0 3.0 0.00 0.00 0.00 76 1007.4
20260508052804 70 62 0.0 3.0 0.00 0.00 0.00 76 1007.5
20260508052703 70 62 0.0 3.0 0.00 0.00 0.00 76 1007.5
20260508052604 70 62 0.0 3.0 0.00 0.00 0.00 76 1007.5
20260508052505 70 62 0.0 4.0 0.00 0.00 0.00 76 1007.5
20260508052404 70 62 0.0 4.0 0.00 0.00 0.00 76 1007.5
20260508052306 70 62 0.0 4.0 0.00 0.00 0.00 76 1007.6
20260508052203 70 62 1.0 4.0 0.00 0.00 0.00 76 1007.7
20260508052102 70 62 1.0 4.0 0.00 0.00 0.00 76 1007.7
20260508052006 70 62 0.0 4.0 0.00 0.00 0.00 76 1007.6
20260508051901 70 62 0.0 4.0 0.00 0.00 0.00 76 1007.6
20260508051804 70 62 2.0 4.0 0.00 0.00 0.00 76 1007.5
20260508051702 70 62 2.0 5.0 0.00 0.00 0.00 75 1007.4
20260508051603 70 62 2.0 5.0 0.00 0.00 0.00 75 1007.4
20260508051503 70 62 2.0 5.0 0.00 0.00 0.00 75 1007.4
20260508051402 70 62 2.0 5.0 0.00 0.00 0.00 75 1007.4
20260508051303 70 62 3.0 5.0 0.00 0.00 0.00 75 1007.5
20260508051202 70 63 3.0 5.0 0.00 0.00 0.00 75 1007.5
20260508051102 71 63 2.0 5.0 0.00 0.00 0.00 75 1007.5
20260508051004 70 63 2.0 5.0 0.00 0.00 0.00 75 1007.5
20260508050904 70 65 3.0 5.0 0.00 0.00 0.00 75 1007.5
20260508050801 70 65 3.0 5.0 0.00 0.00 0.00 75 1007.6
20260508050704 70 55 2.0 5.0 0.00 0.00 0.00 75 1007.6
20260508050603 70 38 2.0 5.0 0.00 0.00 0.00 75 1007.6
20260508050503 70 39 3.0 5.0 0.00 0.00 0.00 75 1007.6
20260508050359 71 39 3.0 5.0 0.00 0.00 0.00 75 1007.5
20260508050253 71 37 2.0 5.0 0.00 0.00 0.00 75 1007.7
20260508050149 71 32 2.0 5.0 0.00 0.00 0.00 75 1007.6
20260508050049 71 32 2.0 5.0 0.00 0.00 0.00 75 1007.6
20260508045947 71 32 3.0 5.0 0.00 0.00 0.00 75 1007.6
20260508045853 71 35 3.0 5.0 0.00 0.00 0.00 75 1007.6
20260508045748 71 38 3.0 5.0 0.00 0.00 0.00 75 1007.6
20260508045648 71 6 3.0 5.0 0.00 0.00 0.00 75 1007.7
20260508045548 71 17 2.0 5.0 0.00 0.00 0.00 75 1007.7
20260508045447 71 24 2.0 5.0 0.00 0.00 0.00 75 1007.6
20260508045348 71 24 2.0 5.0 0.00 0.00 0.00 75 1007.7
20260508045249 71 25 2.0 5.0 0.00 0.00 0.00 75 1007.6
20260508045148 71 25 3.0 5.0 0.00 0.00 0.00 75 1007.8
20260508045048 71 14 2.0 5.0 0.00 0.00 0.00 75 1007.7
20260508044949 71 13 3.0 5.0 0.00 0.00 0.00 75 1007.7
20260508044850 71 6 3.0 6.0 0.00 0.00 0.00 75 1007.7
20260508044749 71 0 2.0 6.0 0.00 0.00 0.00 75 1007.8
20260508044647 71 1 2.0 6.0 0.00 0.00 0.00 75 1007.8
20260508044549 71 10 2.0 6.0 0.00 0.00 0.00 75 1007.8
20260508044447 71 10 1.0 6.0 0.00 0.00 0.00 75 1007.8
20260508044347 71 13 1.0 6.0 0.00 0.00 0.00 75 1007.7
20260508044247 71 13 1.0 6.0 0.00 0.00 0.00 75 1007.7
20260508044148 71 13 2.0 6.0 0.00 0.00 0.00 74 1007.7
20260508044048 71 13 3.0 6.0 0.00 0.00 0.00 74 1007.6
20260508043948 71 34 3.0 6.0 0.00 0.00 0.00 74 1007.6
20260508043849 71 23 3.0 5.0 0.00 0.00 0.00 74 1007.6
20260508043748 71 10 3.0 5.0 0.00 0.00 0.00 74 1007.6
20260508043650 71 21 3.0 5.0 0.00 0.00 0.00 74 1007.6
20260508043548 71 23 4.0 5.0 0.00 0.00 0.00 74 1007.7
20260508043447 71 34 4.0 5.0 0.00 0.00 0.00 74 1007.8
20260508043347 71 20 3.0 5.0 0.00 0.00 0.00 74 1007.8
20260508043249 71 25 2.0 6.0 0.00 0.00 0.00 74 1007.7
20260508043149 71 54 2.0 7.0 0.00 0.00 0.00 74 1007.8
20260508043047 71 54 2.0 7.0 0.00 0.00 0.00 74 1007.8
20260508042948 71 56 3.0 7.0 0.00 0.00 0.00 74 1007.9
20260508042846 71 54 2.0 7.0 0.00 0.00 0.00 74 1007.9
20260508042748 71 54 2.0 7.0 0.00 0.00 0.00 73 1008.0
20260508042648 71 54 3.0 7.0 0.00 0.00 0.00 73 1008.0
20260508042548 71 41 3.0 7.0 0.00 0.00 0.00 73 1008.0
20260508042447 71 62 3.0 7.0 0.00 0.00 0.00 73 1008.0
20260508042348 71 62 4.0 7.0 0.00 0.00 0.00 73 1008.0
20260508042247 71 85 4.0 7.0 0.00 0.00 0.00 73 1008.0
20260508042149 71 45 3.0 6.0 0.00 0.00 0.00 73 1008.0
20260508042046 71 61 2.0 6.0 0.00 0.00 0.00 73 1008.0
20260508041948 71 63 3.0 6.0 0.00 0.00 0.00 73 1008.0
20260508041846 71 45 4.0 6.0 0.00 0.00 0.00 73 1008.0
20260508041748 71 106 3.0 6.0 0.00 0.00 0.00 73 1007.9
20260508041648 71 47 1.0 6.0 0.00 0.00 0.00 73 1008.0
20260508041546 71 39 0.0 6.0 0.00 0.00 0.00 73 1008.1
20260508041447 71 39 1.0 6.0 0.00 0.00 0.00 73 1008.1
20260508041346 71 39 2.0 6.0 0.00 0.00 0.00 73 1008.1
20260508041246 71 39 2.0 6.0 0.00 0.00 0.00 73 1008.0
20260508041147 71 38 2.0 6.0 0.00 0.00 0.00 73 1008.1
20260508041047 71 38 3.0 6.0 0.00 0.00 0.00 73 1008.0
20260508040948 71 35 3.0 6.0 0.00 0.00 0.00 73 1007.9
20260508040846 71 56 4.0 6.0 0.00 0.00 0.00 73 1007.9
20260508040748 71 47 3.0 6.0 0.00 0.00 0.00 73 1007.8
20260508040646 71 48 3.0 5.0 0.00 0.00 0.00 73 1007.8
20260508040546 71 51 3.0 5.0 0.00 0.00 0.00 73 1007.9
20260508040448 71 47 3.0 5.0 0.00 0.00 0.00 73 1007.9
20260508040346 71 37 2.0 5.0 0.00 0.00 0.00 73 1007.9
20260508040247 71 14 3.0 5.0 0.00 0.00 0.00 73 1007.8
20260508040148 71 14 3.0 5.0 0.00 0.00 0.00 73 1007.9
20260508040047 71 21 3.0 5.0 0.00 0.00 0.00 73 1007.9
20260508035948 71 27 4.0 6.0 0.00 0.00 0.00 73 1008.0
20260508035846 71 0 4.0 6.0 0.00 0.00 0.00 73 1007.9
20260508035747 71 0 3.0 6.0 0.00 0.00 0.00 73 1007.9
20260508035646 71 4 4.0 6.0 0.00 0.00 0.00 73 1007.9
20260508035546 71 27 3.0 6.0 0.00 0.00 0.00 73 1008.0
20260508035447 71 23 2.0 6.0 0.00 0.00 0.00 73 1007.9
20260508035348 71 0 2.0 7.0 0.00 0.00 0.00 73 1007.8
20260508035248 71 18 2.0 7.0 0.00 0.00 0.00 73 1007.7
20260508035146 71 16 3.0 7.0 0.00 0.00 0.00 73 1007.6
20260508035046 71 44 4.0 7.0 0.00 0.00 0.00 73 1007.6
20260508034947 71 20 4.0 7.0 0.00 0.00 0.00 73 1007.4
20260508034848 71 0 5.0 7.0 0.00 0.00 0.00 73 1007.4
20260508034747 71 23 4.0 7.0 0.00 0.00 0.00 73 1007.5
20260508034648 71 16 4.0 7.0 0.00 0.00 0.00 73 1007.5
20260508034546 71 0 4.0 7.0 0.00 0.00 0.00 73 1007.5
20260508034445 71 17 4.0 10.0 0.00 0.00 0.00 73 1007.5
20260508034345 71 340 2.0 10.0 0.00 0.00 0.00 73 1007.5
20260508034246 71 4 2.0 10.0 0.00 0.00 0.00 73 1007.4
20260508034146 71 41 3.0 10.0 0.00 0.00 0.00 73 1007.4
20260508034045 71 55 3.0 10.0 0.00 0.00 0.00 73 1007.3
20260508033946 71 63 3.0 10.0 0.00 0.00 0.00 73 1007.1
20260508033847 71 49 3.0 10.0 0.00 0.00 0.00 72 1007.1
20260508033746 71 127 4.0 10.0 0.00 0.00 0.00 72 1006.9
20260508033648 72 82 4.0 10.0 0.00 0.00 0.00 72 1006.9
20260508033546 71 85 5.0 10.0 0.00 0.00 0.00 72 1006.9
20260508033447 71 90 5.0 10.0 0.00 0.00 0.00 72 1006.9
20260508033346 72 76 5.0 10.0 0.00 0.00 0.00 72 1006.8
20260508033247 71 96 5.0 10.0 0.00 0.00 0.00 72 1006.9
20260508033148 71 31 5.0 10.0 0.00 0.00 0.00 72 1006.9
20260508033046 72 114 5.0 10.0 0.00 0.00 0.00 73 1007.0
20260508032947 71 85 6.0 10.0 0.00 0.00 0.00 73 1007.0
20260508032846 71 93 7.0 10.0 0.00 0.00 0.00 73 1007.0
20260508032745 72 86 6.0 9.0 0.00 0.00 0.00 73 1006.9
20260508032645 72 71 6.0 7.0 0.00 0.00 0.00 73 1007.0
20260508032546 72 100 5.0 7.0 0.00 0.00 0.00 73 1007.0
20260508032445 72 65 5.0 7.0 0.00 0.00 0.00 73 1007.1
20260508032347 72 94 4.0 7.0 0.00 0.00 0.00 73 1007.1
20260508032248 72 73 4.0 6.0 0.00 0.00 0.00 73 1007.2
20260508032145 72 80 4.0 6.0 0.00 0.00 0.00 73 1007.4
20260508032046 72 89 4.0 6.0 0.00 0.00 0.00 73 1007.4
20260508031947 72 107 4.0 6.0 0.00 0.00 0.00 72 1007.5
20260508031847 72 85 3.0 6.0 0.00 0.00 0.00 72 1007.6
20260508031745 72 89 2.0 7.0 0.00 0.00 0.00 72 1007.6
20260508031646 72 54 2.0 7.0 0.00 0.00 0.00 72 1007.6
20260508031545 72 59 3.0 7.0 0.00 0.00 0.00 72 1007.7
20260508031445 72 85 4.0 7.0 0.00 0.00 0.00 72 1007.7
20260508031346 72 97 4.0 7.0 0.00 0.00 0.00 72 1007.8
20260508031246 72 48 4.0 7.0 0.00 0.00 0.00 72 1007.7
20260508031145 72 71 3.0 7.0 0.00 0.00 0.00 73 1007.9
20260508031046 72 85 4.0 7.0 0.00 0.00 0.00 73 1008.0
20260508030945 72 35 4.0 7.0 0.00 0.00 0.00 73 1008.0
20260508030844 72 32 4.0 7.0 0.00 0.00 0.00 73 1008.1
20260508030745 72 55 4.0 6.0 0.00 0.00 0.00 73 1008.2
20260508030631 72 35 2.0 5.0 0.00 0.00 0.00 74 1008.0
20260508030531 72 41 1.0 5.0 0.00 0.00 0.00 74 1008.0
20260508030432 72 41 2.0 5.0 0.00 0.00 0.00 74 1007.9
20260508030331 72 39 3.0 5.0 0.00 0.00 0.00 74 1008.0
20260508030231 72 39 3.0 5.0 0.00 0.00 0.00 74 1008.0
20260508030130 72 49 3.0 5.0 0.00 0.00 0.00 74 1008.0
20260508030021 72 49 3.0 5.0 0.00 0.00 0.00 74 1008.0
20260508025918 72 35 2.0 5.0 0.00 0.00 0.00 75 1008.1
20260508025818 72 27 2.0 5.0 0.00 0.00 0.00 74 1008.2
20260508025708 72 25 2.0 5.0 0.00 0.00 0.00 74 1008.2
20260508025607 72 25 2.0 5.0 0.00 0.00 0.00 74 1008.2
20260508025504 72 25 2.0 5.0 0.00 0.00 0.00 74 1008.3
20260508025405 72 25 2.0 5.0 0.00 0.00 0.00 74 1008.3
20260508025306 72 27 3.0 5.0 0.00 0.00 0.00 75 1008.3
20260508025204 72 27 3.0 5.0 0.00 0.00 0.00 75 1008.2
20260508025102 72 31 2.0 5.0 0.00 0.00 0.00 74 1008.3
20260508025004 72 32 2.0 5.0 0.00 0.00 0.00 75 1008.2
20260508024904 72 32 2.0 5.0 0.00 0.00 0.00 75 1008.2
20260508024803 72 32 2.0 5.0 0.00 0.00 0.00 75 1008.2
20260508024702 72 32 3.0 5.0 0.00 0.00 0.00 75 1008.1
20260508024602 72 35 3.0 5.0 0.00 0.00 0.00 74 1008.2
20260508024505 72 37 4.0 5.0 0.00 0.00 0.00 74 1008.1
20260508024403 72 17 4.0 5.0 0.00 0.00 0.00 74 1008.1
20260508024302 72 16 4.0 5.0 0.00 0.00 0.00 74 1008.2
20260508024203 72 0 4.0 5.0 0.00 0.00 0.00 74 1008.2
20260508024104 72 0 4.0 5.0 0.00 0.00 0.00 74 1008.1
20260508024002 72 0 4.0 5.0 0.00 0.00 0.00 75 1008.2
20260508023904 72 0 4.0 5.0 0.00 0.00 0.00 75 1008.2
20260508023804 72 0 4.0 5.0 0.00 0.00 0.00 75 1008.2
20260508023702 73 0 4.0 5.0 0.00 0.00 0.00 75 1008.2
20260508023604 73 0 3.0 5.0 0.00 0.00 0.00 75 1008.3
20260508023505 73 357 3.0 5.0 0.00 0.00 0.00 75 1008.4
20260508023402 73 357 4.0 5.0 0.00 0.00 0.00 75 1008.3
20260508023304 73 340 4.0 5.0 0.00 0.00 0.00 75 1008.2
20260508023203 73 0 4.0 5.0 0.00 0.00 0.00 75 1008.2
20260508023104 73 354 4.0 5.0 0.00 0.00 0.00 75 1008.2
20260508023003 73 0 4.0 5.0 0.00 0.00 0.00 75 1008.1
20260508022902 73 0 3.0 4.0 0.00 0.00 0.00 74 1008.0
20260508022804 73 25 2.0 3.0 0.00 0.00 0.00 74 1008.0
20260508022702 73 25 1.0 3.0 0.00 0.00 0.00 74 1007.9
20260508022604 73 25 1.0 3.0 0.00 0.00 0.00 74 1007.9
20260508022503 73 25 2.0 4.0 0.00 0.00 0.00 74 1007.9
20260508022404 73 24 1.0 4.0 0.00 0.00 0.00 74 1007.9
20260508022306 73 24 2.0 4.0 0.00 0.00 0.00 74 1007.8
20260508022202 73 24 2.0 4.0 0.00 0.00 0.00 74 1007.8
20260508022103 73 23 2.0 4.0 0.00 0.00 0.00 74 1007.7
20260508022005 73 21 2.0 4.0 0.00 0.00 0.00 75 1007.7
20260508021903 73 21 2.0 4.0 0.00 0.00 0.00 75 1007.8
20260508021803 73 20 1.0 4.0 0.00 0.00 0.00 75 1007.8
20260508021703 73 20 2.0 4.0 0.00 0.00 0.00 75 1007.8
20260508021603 73 20 3.0 4.0 0.00 0.00 0.00 75 1007.9
20260508021503 73 20 3.0 5.0 0.00 0.00 0.00 75 1007.8
20260508021403 73 10 2.0 6.0 0.00 0.00 0.00 75 1007.9
20260508021303 73 10 2.0 6.0 0.00 0.00 0.00 75 1007.9
20260508021204 73 10 2.0 6.0 0.00 0.00 0.00 75 1007.9
20260508021102 73 10 2.0 6.0 0.00 0.00 0.00 75 1007.9
20260508021003 73 10 2.0 6.0 0.00 0.00 0.00 75 1007.9
20260508020903 73 10 2.0 6.0 0.00 0.00 0.00 74 1007.9
20260508020802 73 10 3.0 6.0 0.00 0.00 0.00 74 1007.8
20260508020704 73 10 3.0 6.0 0.00 0.00 0.00 74 1007.8
20260508020604 73 3 3.0 6.0 0.00 0.00 0.00 74 1007.8
20260508020504 73 0 4.0 6.0 0.00 0.00 0.00 74 1007.8
20260508020403 73 41 3.0 3.0 0.00 0.00 0.00 74 1007.8
20260508020303 73 44 2.0 3.0 0.00 0.00 0.00 74 1007.8
20260508020203 73 44 2.0 3.0 0.00 0.00 0.00 74 1007.9
20260508020003 73 44 2.0 4.0 0.00 0.00 0.00 74 1008.0
20260508015903 73 44 2.0 4.0 0.00 0.00 0.00 74 1008.1
20260508015802 73 44 2.0 4.0 0.00 0.00 0.00 74 1008.0
20260508015703 73 44 2.0 4.0 0.00 0.00 0.00 74 1008.0
20260508015604 73 44 2.0 4.0 0.00 0.00 0.00 74 1008.0
20260508015505 73 44 2.0 4.0 0.00 0.00 0.00 74 1007.9
20260508015403 73 44 2.0 4.0 0.00 0.00 0.00 74 1007.9
20260508015305 74 45 2.0 4.0 0.00 0.00 0.00 74 1007.9
20260508015202 73 47 2.0 4.0 0.00 0.00 0.00 74 1008.0
20260508015103 73 47 2.0 4.0 0.00 0.00 0.00 74 1008.0
20260508015006 73 48 2.0 4.0 0.00 0.00 0.00 74 1008.0
20260508014904 74 48 2.0 5.0 0.00 0.00 0.00 74 1008.0
20260508014803 74 49 2.0 5.0 0.00 0.00 0.00 73 1007.9
20260508014703 74 49 2.0 5.0 0.00 0.00 0.00 73 1007.9
20260508014603 74 49 2.0 5.0 0.00 0.00 0.00 73 1007.9
20260508014503 74 49 2.0 5.0 0.00 0.00 0.00 73 1007.8
20260508014402 74 49 2.0 5.0 0.00 0.00 0.00 73 1007.8
20260508014304 74 49 1.0 5.0 0.00 0.00 0.00 73 1007.8
20260508014204 74 52 1.0 5.0 0.00 0.00 0.00 73 1007.8
20260508014104 74 52 2.0 5.0 0.00 0.00 0.00 73 1007.8
20260508014002 74 52 3.0 5.0 0.00 0.00 0.00 73 1007.7
20260508013903 74 55 2.0 5.0 0.00 0.00 0.00 73 1007.7
20260508013802 74 58 2.0 5.0 0.00 0.00 0.00 73 1007.6
20260508013703 74 51 1.0 4.0 0.00 0.00 0.00 73 1007.7
20260508013603 74 49 1.0 4.0 0.00 0.00 0.00 73 1007.6
20260508013504 74 49 2.0 4.0 0.00 0.00 0.00 73 1007.7
20260508013403 74 49 2.0 4.0 0.00 0.00 0.00 73 1007.7
20260508013303 74 48 2.0 4.0 0.00 0.00 0.00 73 1007.7
20260508013202 74 41 2.0 4.0 0.00 0.00 0.00 73 1007.8
20260508013103 74 41 2.0 5.0 0.00 0.00 0.00 73 1007.8
20260508013004 74 39 3.0 5.0 0.00 0.00 0.00 73 1007.8
20260508012904 74 27 3.0 5.0 0.00 0.00 0.00 72 1007.9
20260508012801 74 27 3.0 5.0 0.00 0.00 0.00 73 1007.9
20260508012703 74 25 3.0 5.0 0.00 0.00 0.00 73 1007.9
20260508012603 74 32 3.0 5.0 0.00 0.00 0.00 72 1007.9
20260508012505 74 35 3.0 5.0 0.00 0.00 0.00 72 1008.0
20260508012404 74 37 3.0 5.0 0.00 0.00 0.00 72 1008.0
20260508012307 74 20 3.0 5.0 0.00 0.00 0.00 72 1007.9
20260508012202 74 21 3.0 5.0 0.00 0.00 0.00 72 1007.9
20260508012103 74 20 3.0 5.0 0.00 0.00 0.00 72 1007.9
20260508012002 74 13 3.0 5.0 0.00 0.00 0.00 72 1007.9
20260508011904 74 1 4.0 5.0 0.00 0.00 0.00 72 1007.8
20260508011802 74 6 4.0 5.0 0.00 0.00 0.00 72 1007.9
20260508011702 74 6 3.0 5.0 0.00 0.00 0.00 72 1007.8
20260508011602 74 32 3.0 5.0 0.00 0.00 0.00 72 1007.8
20260508011502 74 31 3.0 5.0 0.00 0.00 0.00 72 1007.9
20260508011402 74 38 3.0 5.0 0.00 0.00 0.00 71 1007.9
20260508011303 74 34 3.0 5.0 0.00 0.00 0.00 71 1007.8
20260508011202 74 28 3.0 5.0 0.00 0.00 0.00 71 1007.8
20260508011106 74 21 3.0 5.0 0.00 0.00 0.00 71 1007.9
20260508011003 74 38 4.0 5.0 0.00 0.00 0.00 71 1007.9
20260508010903 74 41 4.0 5.0 0.00 0.00 0.00 71 1007.8
20260508010804 74 38 3.0 5.0 0.00 0.00 0.00 71 1007.9
20260508010702 74 27 3.0 5.0 0.00 0.00 0.00 71 1007.9
20260508010603 74 17 2.0 4.0 0.00 0.00 0.00 71 1007.9
20260508010504 74 28 2.0 4.0 0.00 0.00 0.00 71 1007.8
20260508010404 74 28 1.0 4.0 0.00 0.00 0.00 71 1007.9
20260508010303 74 27 0.0 4.0 0.00 0.00 0.00 71 1007.8
20260508010201 74 27 0.0 4.0 0.00 0.00 0.00 71 1007.9
20260508010105 74 27 1.0 4.0 0.00 0.00 0.00 71 1007.7
20260508010004 74 27 2.0 4.0 0.00 0.00 0.00 71 1007.8
20260508005903 74 25 2.0 4.0 0.00 0.00 0.00 71 1007.8
20260508005802 74 27 3.0 4.0 0.00 0.00 0.00 70 1007.7
20260508005703 75 27 3.0 4.0 0.00 0.00 0.00 70 1007.8
20260508005602 75 354 3.0 4.0 0.00 0.00 0.00 70 1007.8
20260508005502 75 25 3.0 6.0 0.00 0.00 0.00 70 1007.8
20260508005403 75 27 2.0 6.0 0.00 0.00 0.00 70 1007.8
20260508005305 75 18 2.0 6.0 0.00 0.00 0.00 70 1007.7
20260508005204 75 18 2.0 6.0 0.00 0.00 0.00 70 1007.7
20260508005103 75 23 2.0 6.0 0.00 0.00 0.00 70 1007.8
20260508005004 75 23 3.0 6.0 0.00 0.00 0.00 70 1007.8
20260508004905 75 10 3.0 6.0 0.00 0.00 0.00 69 1007.9
20260508004803 75 13 3.0 7.0 0.00 0.00 0.00 69 1007.9
20260508004702 75 35 4.0 9.0 0.00 0.00 0.00 69 1007.8
20260508004602 75 37 4.0 9.0 0.00 0.00 0.00 69 1007.7
20260508004503 75 24 4.0 9.0 0.00 0.00 0.00 69 1007.8
20260508004402 75 41 3.0 9.0 0.00 0.00 0.00 69 1007.8
20260508004303 75 4 3.0 9.0 0.00 0.00 0.00 69 1007.8
20260508004202 75 24 4.0 9.0 0.00 0.00 0.00 69 1007.9
20260508004102 75 25 5.0 9.0 0.00 0.00 0.00 69 1007.9
20260508004003 75 1 5.0 9.0 0.00 0.00 0.00 69 1007.9
20260508003903 75 1 5.0 9.0 0.00 0.00 0.00 69 1007.8
20260508003804 75 14 5.0 9.0 0.00 0.00 0.00 69 1007.8
20260508003705 75 1 4.0 9.0 0.00 0.00 0.00 69 1007.8
20260508003603 75 10 6.0 9.0 0.00 0.00 0.00 69 1007.8
20260508003504 75 11 6.0 9.0 0.00 0.00 0.00 69 1007.8
20260508003403 75 30 5.0 9.0 0.00 0.00 0.00 69 1007.9
20260508003303 75 1 5.0 9.0 0.00 0.00 0.00 69 1007.7
20260508003203 75 17 4.0 9.0 0.00 0.00 0.00 69 1007.8
20260508003102 75 8 5.0 9.0 0.00 0.00 0.00 69 1007.8
20260508003003 75 3 5.0 9.0 0.00 0.00 0.00 69 1007.8
20260508002903 75 18 5.0 9.0 0.00 0.00 0.00 70 1007.7
20260508002803 75 20 4.0 9.0 0.00 0.00 0.00 70 1007.7
20260508002703 75 16 4.0 9.0 0.00 0.00 0.00 70 1007.7
20260508002603 75 7 5.0 9.0 0.00 0.00 0.00 70 1007.7
20260508002504 75 16 5.0 9.0 0.00 0.00 0.00 69 1007.8
20260508002404 75 0 5.0 7.0 0.00 0.00 0.00 69 1007.8
20260508002306 75 11 5.0 9.0 0.00 0.00 0.00 69 1007.8
20260508002204 75 27 4.0 9.0 0.00 0.00 0.00 69 1007.9
20260508002102 75 0 4.0 10.0 0.00 0.00 0.00 69 1007.8
20260508002003 75 1 5.0 10.0 0.00 0.00 0.00 69 1007.7
20260508001902 75 14 6.0 10.0 0.00 0.00 0.00 69 1007.8
20260508001803 75 6 6.0 11.0 0.00 0.00 0.00 69 1007.7
20260508001702 75 348 5.0 11.0 0.00 0.00 0.00 69 1007.7
20260508001602 75 32 5.0 11.0 0.00 0.00 0.00 69 1007.7
20260508001504 76 28 5.0 11.0 0.00 0.00 0.00 69 1007.7
20260508001402 76 0 6.0 11.0 0.00 0.00 0.00 69 1007.8
20260508001303 76 0 6.0 11.0 0.00 0.00 0.00 69 1007.7
20260508001201 76 358 6.0 11.0 0.00 0.00 0.00 69 1007.7
20260508001102 76 0 6.0 11.0 0.00 0.00 0.00 69 1007.9
20260508001001 76 8 7.0 11.0 0.00 0.00 0.00 69 1007.9
20260508000903 76 6 6.0 11.0 0.00 0.00 0.00 69 1008.0
20260508000804 76 343 6.0 11.0 0.00 0.00 0.00 69 1008.0
20260508000704 76 340 7.0 11.0 0.00 0.00 0.00 69 1008.0
20260508000603 76 0 6.0 11.0 0.00 0.00 0.00 69 1008.0
20260508000504 76 1 5.0 11.0 0.00 0.00 0.00 70 1008.0
20260508000404 76 17 5.0 11.0 0.00 0.00 0.00 70 1008.0
20260508000305 76 0 6.0 11.0 0.00 0.00 0.00 70 1007.9
20260508000205 76 0 6.0 11.0 0.00 0.00 0.00 70 1008.0
20260508000104 76 1 5.0 9.0 0.00 0.00 0.00 70 1008.0
20260508000003 76 1 5.0 9.0 0.00 0.00 0.00 70 1008.0
20260507235903 76 21 4.0 9.0 0.00 0.00 0.00 70 1007.9
20260507235801 76 0 6.0 9.0 0.00 0.00 0.00 70 1008.0
20260507235704 76 355 6.0 9.0 0.00 0.00 0.00 70 1008.0
20260507235604 76 0 6.0 9.0 0.00 0.00 0.00 70 1008.0
20260507235503 76 30 7.0 9.0 0.00 0.00 0.00 70 1008.1
20260507235404 76 0 6.0 9.0 0.00 0.00 0.00 70 1008.2
20260507235306 76 0 5.0 9.0 0.00 0.00 0.00 70 1008.1
20260507235204 76 25 6.0 11.0 0.00 0.00 0.00 70 1008.1
20260507235103 76 17 5.0 11.0 0.00 0.00 0.00 71 1008.0
20260507235005 76 8 5.0 11.0 0.00 0.00 0.00 71 1008.0
20260507234905 76 357 5.0 11.0 0.00 0.00 0.00 71 1008.0
20260507234803 76 0 4.0 11.0 0.00 0.00 0.00 71 1008.1
20260507234702 76 13 5.0 11.0 0.00 0.00 0.00 71 1008.0
20260507234603 76 0 5.0 11.0 0.00 0.00 0.00 70 1008.1
20260507234505 76 357 6.0 11.0 0.00 0.00 0.00 70 1008.1
20260507234403 76 14 7.0 11.0 0.00 0.00 0.00 70 1008.2
20260507234302 76 13 6.0 11.0 0.00 0.00 0.00 71 1008.2
20260507234203 76 14 7.0 10.0 0.00 0.00 0.00 72 1008.2
20260507234103 76 6 6.0 10.0 0.00 0.00 0.00 72 1008.1
20260507234003 76 10 5.0 11.0 0.00 0.00 0.00 72 1008.2
20260507233903 76 10 5.0 11.0 0.00 0.00 0.00 72 1008.1
20260507233803 76 350 5.0 11.0 0.00 0.00 0.00 71 1008.1
20260507233704 76 347 5.0 11.0 0.00 0.00 0.00 72 1008.2
20260507233603 76 10 5.0 11.0 0.00 0.00 0.00 72 1008.2
20260507233504 76 341 6.0 11.0 0.00 0.00 0.00 72 1008.1
20260507233402 76 0 6.0 11.0 0.00 0.00 0.00 72 1008.1
20260507233302 76 348 6.0 11.0 0.00 0.00 0.00 72 1008.1
20260507233203 76 329 7.0 11.0 0.00 0.00 0.00 72 1008.1
20260507233104 76 0 9.0 11.0 0.00 0.00 0.00 72 1008.0
20260507233005 76 338 8.0 11.0 0.00 0.00 0.00 72 1008.1
20260507232902 76 351 6.0 10.0 0.00 0.00 0.00 72 1008.1
20260507232804 76 331 6.0 10.0 0.00 0.00 0.00 72 1008.0
20260507232703 76 337 7.0 10.0 0.00 0.00 0.00 72 1008.0
20260507232602 76 333 8.0 10.0 0.00 0.00 0.00 72 1008.0
20260507232504 76 336 7.0 10.0 0.00 0.00 0.00 72 1008.0
20260507232401 76 343 8.0 10.0 0.00 0.00 0.00 72 1007.9
20260507232306 76 333 8.0 10.0 0.00 0.00 0.00 72 1008.0
20260507232202 76 331 7.0 10.0 0.00 0.00 0.00 72 1008.0
20260507232102 76 302 6.0 10.0 0.00 0.00 0.00 72 1007.9
20260507232004 76 333 7.0 10.0 0.00 0.00 0.00 72 1007.9
20260507231902 76 355 7.0 10.0 0.00 0.00 0.00 72 1007.8
20260507231801 76 345 6.0 9.0 0.00 0.00 0.00 72 1007.8
20260507231702 76 314 6.0 9.0 0.00 0.00 0.00 72 1007.8
20260507231603 76 348 7.0 9.0 0.00 0.00 0.00 72 1007.7
20260507231504 76 341 7.0 9.0 0.00 0.00 0.00 72 1007.7
20260507231403 76 344 6.0 9.0 0.00 0.00 0.00 72 1007.7
20260507231304 76 320 6.0 9.0 0.00 0.00 0.00 72 1007.7
20260507231202 76 333 6.0 10.0 0.00 0.00 0.00 72 1007.7
20260507231103 76 341 6.0 11.0 0.00 0.00 0.00 71 1007.8
20260507231005 76 316 6.0 11.0 0.00 0.00 0.00 72 1007.8
20260507230902 77 334 6.0 11.0 0.00 0.00 0.00 71 1007.8
20260507230804 77 338 4.0 11.0 0.00 0.00 0.00 71 1007.8
20260507230704 77 6 5.0 11.0 0.00 0.00 0.00 71 1007.8
20260507230601 77 0 6.0 11.0 0.00 0.00 0.00 71 1007.7
20260507230504 77 0 7.0 11.0 0.00 0.00 0.00 71 1007.7
20260507230405 77 348 8.0 11.0 0.00 0.00 0.00 72 1007.7
20260507230303 77 348 8.0 11.0 0.00 0.00 0.00 72 1007.7
20260507230203 77 345 9.0 12.0 0.00 0.00 0.00 71 1007.6
20260507230003 77 326 7.0 12.0 0.00 0.00 0.00 72 1007.6
20260507225904 77 0 5.0 12.0 0.00 0.00 0.00 72 1007.5
20260507225804 77 348 5.0 12.0 0.00 0.00 0.00 72 1007.4
20260507225704 77 0 6.0 12.0 0.00 0.00 0.00 72 1007.4
20260507225602 77 0 7.0 12.0 0.00 0.00 0.00 71 1007.5
20260507225504 77 0 8.0 12.0 0.00 0.00 0.00 71 1007.4
20260507225403 77 0 8.0 12.0 0.00 0.00 0.00 71 1007.4
20260507225306 77 344 7.0 12.0 0.00 0.00 0.00 71 1007.4
20260507225202 77 334 7.0 11.0 0.00 0.00 0.00 71 1007.4
20260507225103 77 337 8.0 11.0 0.00 0.00 0.00 71 1007.5
20260507225003 77 345 7.0 10.0 0.00 0.00 0.00 71 1007.4
20260507224902 77 323 7.0 10.0 0.00 0.00 0.00 71 1007.5
20260507224802 78 334 6.0 10.0 0.00 0.00 0.00 72 1007.5
20260507224704 77 348 5.0 10.0 0.00 0.00 0.00 71 1007.5
20260507224604 77 0 6.0 13.0 0.00 0.00 0.00 71 1007.5
20260507224504 77 0 6.0 13.0 0.00 0.00 0.00 71 1007.5
20260507224403 77 357 6.0 13.0 0.00 0.00 0.00 71 1007.4
20260507224303 77 358 7.0 13.0 0.00 0.00 0.00 71 1007.4
20260507224202 77 337 6.0 13.0 0.00 0.00 0.00 72 1007.4
20260507224102 77 347 7.0 13.0 0.00 0.00 0.00 72 1007.4
20260507224003 77 336 7.0 13.0 0.00 0.00 0.00 72 1007.4
20260507223902 77 338 7.0 13.0 0.00 0.00 0.00 72 1007.4
20260507223804 77 348 6.0 13.0 0.00 0.00 0.00 72 1007.3
20260507223703 77 347 5.0 13.0 0.00 0.00 0.00 72 1007.3
20260507223602 77 0 4.0 9.0 0.00 0.00 0.00 72 1007.3
20260507223504 77 4 5.0 9.0 0.00 0.00 0.00 72 1007.3
20260507223404 77 8 5.0 11.0 0.00 0.00 0.00 72 1007.4
20260507223302 77 20 5.0 11.0 0.00 0.00 0.00 73 1007.2
20260507223202 77 343 4.0 11.0 0.00 0.00 0.00 73 1007.3
20260507223102 77 16 4.0 11.0 0.00 0.00 0.00 72 1007.2
20260507223004 77 18 4.0 11.0 0.00 0.00 0.00 72 1007.2
20260507222904 77 8 5.0 11.0 0.00 0.00 0.00 72 1007.2
20260507222803 77 347 6.0 11.0 0.00 0.00 0.00 72 1007.2
20260507222704 77 338 6.0 11.0 0.00 0.00 0.00 72 1007.2
20260507222602 77 347 7.0 11.0 0.00 0.00 0.00 71 1007.2
20260507222503 77 355 6.0 11.0 0.00 0.00 0.00 72 1007.1
20260507222401 77 348 5.0 11.0 0.00 0.00 0.00 72 1007.2
20260507222306 77 0 4.0 11.0 0.00 0.00 0.00 72 1007.2
20260507222204 77 25 4.0 11.0 0.00 0.00 0.00 72 1007.2
20260507222103 77 17 5.0 11.0 0.00 0.00 0.00 72 1007.2
20260507222004 77 0 5.0 11.0 0.00 0.00 0.00 72 1007.2
20260507221902 77 44 5.0 11.0 0.00 0.00 0.00 72 1007.2
20260507221802 77 0 5.0 11.0 0.00 0.00 0.00 72 1007.2
20260507221702 77 30 5.0 11.0 0.00 0.00 0.00 71 1007.2
20260507221604 77 0 4.0 10.0 0.00 0.00 0.00 71 1007.2
20260507221503 77 7 5.0 10.0 0.00 0.00 0.00 71 1007.2
20260507221404 77 18 6.0 10.0 0.00 0.00 0.00 72 1007.3
20260507221304 77 7 6.0 10.0 0.00 0.00 0.00 72 1007.2
20260507221203 77 21 4.0 10.0 0.00 0.00 0.00 72 1007.2
20260507221104 77 0 5.0 10.0 0.00 0.00 0.00 72 1007.2
20260507221003 77 0 6.0 10.0 0.00 0.00 0.00 72 1007.3
20260507220902 77 20 6.0 10.0 0.00 0.00 0.00 73 1007.3
20260507220802 77 0 4.0 10.0 0.00 0.00 0.00 73 1007.3
20260507220703 77 14 4.0 10.0 0.00 0.00 0.00 72 1007.3
20260507220603 77 14 6.0 10.0 0.00 0.00 0.00 72 1007.4
20260507220504 77 13 6.0 10.0 0.00 0.00 0.00 72 1007.4
20260507220401 77 8 5.0 10.0 0.00 0.00 0.00 72 1007.3
20260507220302 76 309 4.0 10.0 0.00 0.00 0.00 73 1007.5
20260507220203 76 4 5.0 10.0 0.00 0.00 0.00 72 1007.5
20260507220104 76 0 5.0 10.0 0.00 0.00 0.00 73 1007.5
20260507220003 76 7 5.0 9.0 0.00 0.00 0.00 73 1007.5
20260507215903 76 343 5.0 9.0 0.00 0.00 0.00 72 1007.6
20260507215804 76 14 6.0 9.0 0.00 0.00 0.00 72 1007.6
20260507215704 76 354 6.0 9.0 0.00 0.00 0.00 72 1007.6
20260507215603 76 6 6.0 9.0 0.00 0.00 0.00 73 1007.6
20260507215502 76 0 6.0 9.0 0.00 0.00 0.00 72 1007.6
20260507215404 76 0 5.0 7.0 0.00 0.00 0.00 72 1007.6
20260507215306 76 354 6.0 7.0 0.00 0.00 0.00 72 1007.7
20260507215202 76 331 5.0 11.0 0.00 0.00 0.00 72 1007.7
20260507215103 76 10 5.0 11.0 0.00 0.00 0.00 72 1007.7
20260507215003 76 1 5.0 11.0 0.00 0.00 0.00 73 1007.7
20260507214904 76 0 4.0 11.0 0.00 0.00 0.00 73 1007.7
20260507214804 76 8 5.0 11.0 0.00 0.00 0.00 73 1007.7
20260507214701 76 1 5.0 11.0 0.00 0.00 0.00 73 1007.7
20260507214604 76 30 5.0 11.0 0.00 0.00 0.00 72 1007.7
20260507214502 76 1 6.0 11.0 0.00 0.00 0.00 72 1007.7
20260507214404 76 343 7.0 11.0 0.00 0.00 0.00 72 1007.7
20260507214302 76 6 6.0 11.0 0.00 0.00 0.00 72 1007.7
20260507214202 76 0 5.0 11.0 0.00 0.00 0.00 72 1007.7
20260507214103 76 353 6.0 11.0 0.00 0.00 0.00 72 1007.8
20260507214003 76 0 7.0 11.0 0.00 0.00 0.00 72 1007.8
20260507213903 76 347 7.0 11.0 0.00 0.00 0.00 72 1007.9
20260507213804 76 343 8.0 11.0 0.00 0.00 0.00 72 1008.0
20260507213702 76 347 8.0 11.0 0.00 0.00 0.00 72 1007.9
20260507213604 77 340 7.0 11.0 0.00 0.00 0.00 72 1007.9
20260507213504 77 357 7.0 11.0 0.00 0.00 0.00 72 1007.9
20260507213402 77 35 6.0 11.0 0.00 0.00 0.00 73 1007.9
20260507213303 77 351 5.0 11.0 0.00 0.00 0.00 72 1008.0
20260507213201 77 357 5.0 11.0 0.00 0.00 0.00 72 1007.9
20260507213102 77 18 4.0 11.0 0.00 0.00 0.00 72 1007.9
20260507213003 77 326 4.0 11.0 0.00 0.00 0.00 72 1007.8
20260507212905 77 321 5.0 11.0 0.00 0.00 0.00 73 1007.8
20260507212803 77 333 6.0 11.0 0.00 0.00 0.00 72 1007.8
20260507212703 77 3 6.0 11.0 0.00 0.00 0.00 72 1007.8
20260507212602 76 17 6.0 11.0 0.00 0.00 0.00 72 1007.9
20260507212505 76 0 6.0 11.0 0.00 0.00 0.00 72 1007.9
20260507212403 76 333 7.0 11.0 0.00 0.00 0.00 72 1008.0
20260507212306 76 351 7.0 11.0 0.00 0.00 0.00 72 1008.0
20260507212203 76 358 6.0 11.0 0.00 0.00 0.00 72 1008.1
20260507212103 76 0 5.0 11.0 0.00 0.00 0.00 73 1008.1
20260507212005 76 0 6.0 11.0 0.00 0.00 0.00 72 1008.1
20260507211903 76 333 6.0 11.0 0.00 0.00 0.00 72 1008.0
20260507211803 76 0 6.0 11.0 0.00 0.00 0.00 72 1008.1
20260507211704 76 16 7.0 11.0 0.00 0.00 0.00 72 1008.0
20260507211602 76 14 8.0 11.0 0.00 0.00 0.00 72 1008.0
20260507211503 76 357 7.0 11.0 0.00 0.00 0.00 72 1008.0
20260507211403 76 344 7.0 12.0 0.00 0.00 0.00 72 1008.0
20260507211304 77 334 5.0 12.0 0.00 0.00 0.00 72 1008.1
20260507211204 77 0 6.0 12.0 0.00 0.00 0.00 71 1008.0
20260507211104 77 354 7.0 12.0 0.00 0.00 0.00 71 1008.0
20260507211004 77 21 8.0 12.0 0.00 0.00 0.00 72 1008.1
20260507210903 77 350 8.0 12.0 0.00 0.00 0.00 72 1008.0
20260507210803 77 296 6.0 12.0 0.00 0.00 0.00 72 1008.1
20260507210703 77 317 6.0 12.0 0.00 0.00 0.00 72 1008.0
20260507210602 77 334 7.0 12.0 0.00 0.00 0.00 72 1008.1
20260507210503 77 1 8.0 12.0 0.00 0.00 0.00 72 1008.2
20260507210402 77 0 8.0 11.0 0.00 0.00 0.00 72 1008.2
20260507210303 76 16 6.0 11.0 0.00 0.00 0.00 73 1008.2
20260507210203 76 338 4.0 11.0 0.00 0.00 0.00 72 1008.1
20260507210103 76 0 6.0 11.0 0.00 0.00 0.00 71 1008.1
20260507205959 77 347 8.0 11.0 0.00 0.00 0.00 71 1008.2
20260507205850 77 334 8.0 11.0 0.00 0.00 0.00 73 1008.2
20260507205748 76 351 7.0 10.0 0.00 0.00 0.00 72 1008.2
20260507205647 76 354 7.0 10.0 0.00 0.00 0.00 72 1008.2
20260507205543 77 0 7.0 10.0 0.00 0.00 0.00 72 1008.3
20260507205439 76 317 7.0 10.0 0.00 0.00 0.00 73 1008.2
20260507205338 77 345 7.0 10.0 0.00 0.00 0.00 72 1008.2
20260507205237 76 348 6.0 10.0 0.00 0.00 0.00 72 1008.2
20260507205138 76 351 6.0 10.0 0.00 0.00 0.00 73 1008.2
20260507205037 76 354 6.0 10.0 0.00 0.00 0.00 71 1008.2
20260507204937 77 355 6.0 10.0 0.00 0.00 0.00 72 1008.2
20260507204838 77 347 4.0 10.0 0.00 0.00 0.00 73 1008.3
20260507204739 77 18 5.0 10.0 0.00 0.00 0.00 71 1008.3
20260507204637 77 13 7.0 10.0 0.00 0.00 0.00 72 1008.3
20260507204538 77 18 7.0 10.0 0.00 0.00 0.00 73 1008.3
20260507204436 77 1 6.0 10.0 0.00 0.00 0.00 72 1008.4
20260507204336 77 4 6.0 10.0 0.00 0.00 0.00 72 1008.3
20260507204237 77 28 6.0 10.0 0.00 0.00 0.00 73 1008.3
20260507204138 77 7 5.0 10.0 0.00 0.00 0.00 73 1008.3
20260507204038 77 347 6.0 10.0 0.00 0.00 0.00 73 1008.3
20260507203937 77 0 5.0 10.0 0.00 0.00 0.00 73 1008.4
20260507203838 76 351 5.0 10.0 0.00 0.00 0.00 74 1008.4
20260507203737 76 351 6.0 10.0 0.00 0.00 0.00 73 1008.3
20260507203637 76 3 7.0 10.0 0.00 0.00 0.00 73 1008.4
20260507203537 76 320 8.0 10.0 0.00 0.00 0.00 73 1008.3
20260507203438 76 8 5.0 10.0 0.00 0.00 0.00 73 1008.3
20260507203338 76 0 3.0 10.0 0.00 0.00 0.00 73 1008.3
20260507203238 76 0 4.0 10.0 0.00 0.00 0.00 73 1008.3
20260507203137 76 3 5.0 10.0 0.00 0.00 0.00 72 1008.3
20260507203039 76 0 6.0 10.0 0.00 0.00 0.00 72 1008.3
20260507202937 76 3 6.0 10.0 0.00 0.00 0.00 73 1008.3
20260507202835 76 13 6.0 10.0 0.00 0.00 0.00 73 1008.3
20260507202735 76 21 4.0 10.0 0.00 0.00 0.00 73 1008.2
20260507202639 76 0 3.0 9.0 0.00 0.00 0.00 72 1008.2
20260507202536 76 38 3.0 9.0 0.00 0.00 0.00 74 1008.3
20260507202437 76 30 5.0 9.0 0.00 0.00 0.00 74 1008.3
20260507202334 76 30 5.0 9.0 0.00 0.00 0.00 74 1008.3
20260507202234 76 30 5.0 9.0 0.00 0.00 0.00 74 1008.2
20260507202134 76 30 5.0 9.0 0.00 0.00 0.00 74 1008.3
20260507202034 76 30 5.0 9.0 0.00 0.00 0.00 74 1008.3
20260507201934 76 30 5.0 9.0 0.00 0.00 0.00 74 1008.4
20260507201834 76 30 5.0 9.0 0.00 0.00 0.00 74 1008.4
20260507201735 76 0 4.0 9.0 0.00 0.00 0.00 73 1008.4
20260507201636 76 344 4.0 9.0 0.00 0.00 0.00 73 1008.5
20260507201534 76 0 4.0 10.0 0.00 0.00 0.00 72 1008.4
20260507201434 76 358 3.0 10.0 0.00 0.00 0.00 72 1008.5
20260507201334 76 11 3.0 10.0 0.00 0.00 0.00 72 1008.5
20260507201234 76 32 4.0 10.0 0.00 0.00 0.00 73 1008.5
20260507201136 76 24 5.0 10.0 0.00 0.00 0.00 74 1008.5
20260507201033 76 62 6.0 10.0 0.00 0.00 0.00 73 1008.5
20260507200934 76 7 6.0 10.0 0.00 0.00 0.00 73 1008.6
20260507200834 76 8 4.0 10.0 0.00 0.00 0.00 74 1008.6
20260507200735 76 109 5.0 11.0 0.00 0.00 0.00 73 1008.5
20260507200634 75 353 6.0 11.0 0.00 0.00 0.00 73 1008.6
20260507200534 75 4 4.0 11.0 0.00 0.00 0.00 73 1008.6
20260507200433 75 25 3.0 11.0 0.00 0.00 0.00 73 1008.6
20260507200333 75 20 4.0 11.0 0.00 0.00 0.00 73 1008.5
20260507200234 75 34 4.0 11.0 0.00 0.00 0.00 73 1008.5
20260507200134 75 348 4.0 11.0 0.00 0.00 0.00 73 1008.5
20260507200034 75 35 6.0 11.0 0.00 0.00 0.00 73 1008.6
20260507195933 75 0 7.0 11.0 0.00 0.00 0.00 73 1008.5
20260507195833 75 3 8.0 11.0 0.00 0.00 0.00 73 1008.5
20260507195733 75 13 6.0 10.0 0.00 0.00 0.00 73 1008.6
20260507195633 75 0 5.0 10.0 0.00 0.00 0.00 73 1008.6
20260507195533 75 32 4.0 10.0 0.00 0.00 0.00 73 1008.6
20260507195433 75 25 5.0 10.0 0.00 0.00 0.00 73 1008.6
20260507195333 75 21 6.0 10.0 0.00 0.00 0.00 73 1008.6
20260507195233 75 47 5.0 10.0 0.00 0.00 0.00 73 1008.6
20260507195133 75 54 4.0 10.0 0.00 0.00 0.00 74 1008.6
20260507195034 75 51 4.0 11.0 0.00 0.00 0.00 74 1008.7
20260507194933 75 38 6.0 11.0 0.00 0.00 0.00 74 1008.6
20260507194833 74 51 6.0 11.0 0.00 0.00 0.00 75 1008.6
20260507194733 74 3 5.0 11.0 0.00 0.00 0.00 74 1008.5
20260507194633 74 350 5.0 11.0 0.00 0.00 0.00 74 1008.5
20260507194533 74 0 6.0 12.0 0.00 0.00 0.00 73 1008.6
20260507194434 74 30 6.0 12.0 0.00 0.00 0.00 74 1008.6
20260507194333 74 6 5.0 12.0 0.00 0.00 0.00 74 1008.6
20260507194233 74 25 5.0 12.0 0.00 0.00 0.00 74 1008.6
20260507194133 74 42 6.0 12.0 0.00 0.00 0.00 74 1008.6
20260507194034 74 61 8.0 12.0 0.00 0.00 0.00 74 1008.6
20260507193933 74 1 6.0 12.0 0.00 0.00 0.00 75 1008.6
20260507193833 74 0 5.0 12.0 0.00 0.00 0.00 75 1008.7
20260507193732 74 1 6.0 12.0 0.00 0.00 0.00 75 1008.7
20260507193633 74 0 5.0 12.0 0.00 0.00 0.00 75 1008.7
20260507193528 74 31 4.0 11.0 0.00 0.00 0.00 74 1008.7
20260507193426 74 8 5.0 11.0 0.00 0.00 0.00 74 1008.7
20260507193323 74 73 6.0 11.0 0.00 0.00 0.00 74 1008.8
20260507193223 74 0 7.0 11.0 0.00 0.00 0.00 74 1008.8
20260507193121 74 1 6.0 11.0 0.00 0.00 0.00 75 1008.8
20260507193020 74 0 4.0 11.0 0.00 0.00 0.00 75 1008.8
20260507192917 73 16 4.0 11.0 0.00 0.00 0.00 74 1008.9
20260507192818 73 32 6.0 11.0 0.00 0.00 0.00 74 1009.0
20260507192713 74 13 7.0 11.0 0.00 0.00 0.00 75 1009.0
20260507192611 73 25 7.0 11.0 0.00 0.00 0.00 74 1009.0
20260507192508 73 16 7.0 11.0 0.00 0.00 0.00 74 1009.1
20260507192405 73 17 5.0 11.0 0.00 0.00 0.00 75 1009.1
20260507192306 73 358 6.0 11.0 0.00 0.00 0.00 75 1009.1
20260507192203 73 27 7.0 11.0 0.00 0.00 0.00 75 1009.1
20260507192103 73 341 5.0 11.0 0.00 0.00 0.00 75 1009.2
20260507192002 73 14 4.0 11.0 0.00 0.00 0.00 76 1009.2
20260507191902 73 4 4.0 11.0 0.00 0.00 0.00 76 1009.3
20260507191802 73 336 6.0 11.0 0.00 0.00 0.00 75 1009.3
20260507191704 73 0 6.0 11.0 0.00 0.00 0.00 75 1009.3
20260507191604 73 27 7.0 11.0 0.00 0.00 0.00 76 1009.3
20260507191502 73 13 8.0 11.0 0.00 0.00 0.00 76 1009.5
20260507191403 72 353 7.0 11.0 0.00 0.00 0.00 76 1009.4
20260507191302 72 337 6.0 10.0 0.00 0.00 0.00 76 1009.4
20260507191202 72 347 7.0 10.0 0.00 0.00 0.00 75 1009.4
20260507191102 72 340 8.0 12.0 0.00 0.00 0.00 75 1009.4
20260507191004 72 351 7.0 12.0 0.00 0.00 0.00 75 1009.5
20260507190902 72 345 6.0 12.0 0.00 0.00 0.00 75 1009.5
20260507190803 72 31 6.0 12.0 0.00 0.00 0.00 75 1009.6
20260507190702 72 351 6.0 12.0 0.00 0.00 0.00 76 1009.5
20260507190603 72 1 7.0 12.0 0.00 0.00 0.00 75 1009.6
20260507190504 72 49 7.0 12.0 0.00 0.00 0.00 76 1009.6
20260507190402 72 336 6.0 12.0 0.00 0.00 0.00 76 1009.6
20260507190304 72 344 7.0 12.0 0.00 0.00 0.00 76 1009.6
20260507190204 72 350 7.0 12.0 0.00 0.00 0.00 76 1009.6
20260507190005 72 10 8.0 13.0 0.00 0.00 0.00 76 1009.6
20260507185903 72 0 8.0 13.0 0.00 0.00 0.00 75 1009.6
20260507185803 72 0 8.0 13.0 0.00 0.00 0.00 75 1009.6
20260507185703 72 331 9.0 13.0 0.00 0.00 0.00 76 1009.6
20260507185603 72 353 8.0 13.0 0.00 0.00 0.00 76 1009.7
20260507185505 72 340 6.0 13.0 0.00 0.00 0.00 76 1009.6
20260507185402 72 333 6.0 13.0 0.00 0.00 0.00 76 1009.6
20260507185305 72 324 9.0 13.0 0.00 0.00 0.00 75 1009.7
20260507185203 72 357 8.0 13.0 0.00 0.00 0.00 75 1009.6
20260507185103 72 358 9.0 13.0 0.00 0.00 0.00 75 1009.6
20260507185004 73 347 10.0 13.0 0.00 0.00 0.00 76 1009.7
20260507184902 73 340 8.0 13.0 0.00 0.00 0.00 76 1009.7
20260507184804 72 0 6.0 13.0 0.00 0.00 0.00 76 1009.8
20260507184702 72 353 7.0 13.0 0.00 0.00 0.00 77 1009.8
20260507184604 72 341 8.0 13.0 0.00 0.00 0.00 77 1009.9
20260507184502 72 341 8.0 13.0 0.00 0.00 0.00 75 1009.8
20260507184403 72 0 8.0 13.0 0.00 0.00 0.00 75 1009.8
20260507184304 72 336 7.0 13.0 0.00 0.00 0.00 76 1009.9
20260507184202 72 321 7.0 13.0 0.00 0.00 0.00 76 1009.9
20260507184103 72 345 9.0 13.0 0.00 0.00 0.00 77 1009.9
20260507184002 72 347 6.0 13.0 0.00 0.00 0.00 77 1009.9
20260507183904 71 344 7.0 13.0 0.00 0.00 0.00 77 1009.8
20260507183804 71 313 9.0 13.0 0.00 0.00 0.00 77 1009.8
20260507183702 71 351 9.0 13.0 0.00 0.00 0.00 76 1009.9
20260507183601 71 344 9.0 13.0 0.00 0.00 0.00 76 1009.9
20260507183502 71 10 10.0 13.0 0.00 0.00 0.00 76 1009.9
20260507183404 71 321 9.0 13.0 0.00 0.00 0.00 76 1009.8
20260507183304 71 355 9.0 14.0 0.00 0.00 0.00 76 1009.8
20260507183204 71 357 8.0 14.0 0.00 0.00 0.00 76 1009.8
20260507183104 71 350 9.0 14.0 0.00 0.00 0.00 77 1009.9
20260507183002 71 338 8.0 14.0 0.00 0.00 0.00 78 1009.9
20260507182904 71 337 6.0 14.0 0.00 0.00 0.00 78 1009.9
20260507182802 71 0 8.0 14.0 0.00 0.00 0.00 77 1009.9
20260507182702 71 27 10.0 14.0 0.00 0.00 0.00 77 1010.0
20260507182603 70 331 10.0 14.0 0.00 0.00 0.00 77 1010.1
20260507182502 70 353 11.0 14.0 0.00 0.00 0.00 77 1010.0
20260507182404 70 344 10.0 14.0 0.00 0.00 0.00 77 1010.0
20260507182306 70 337 8.0 13.0 0.00 0.00 0.00 77 1010.1
20260507182203 70 348 8.0 13.0 0.00 0.00 0.00 77 1010.1
20260507182102 70 345 7.0 13.0 0.00 0.00 0.00 78 1010.1
20260507182004 70 3 8.0 13.0 0.00 0.00 0.00 78 1010.0
20260507181904 70 343 8.0 13.0 0.00 0.00 0.00 78 1010.0
20260507181801 70 0 9.0 13.0 0.00 0.00 0.00 77 1010.0
20260507181703 70 355 10.0 13.0 0.00 0.00 0.00 77 1010.0
20260507181602 70 340 9.0 13.0 0.00 0.00 0.00 78 1010.1
20260507181504 70 338 8.0 13.0 0.00 0.00 0.00 77 1010.0
20260507181403 70 6 8.0 13.0 0.00 0.00 0.00 77 1010.0
20260507181302 70 347 7.0 13.0 0.00 0.00 0.00 78 1010.0
20260507181204 70 344 9.0 13.0 0.00 0.00 0.00 77 1009.9
20260507181104 70 343 10.0 13.0 0.00 0.00 0.00 77 1010.1
20260507181004 70 323 9.0 12.0 0.00 0.00 0.00 78 1010.1
20260507180903 70 0 8.0 12.0 0.00 0.00 0.00 78 1010.0
20260507180803 70 3 6.0 12.0 0.00 0.00 0.00 78 1010.0
20260507180704 69 355 6.0 12.0 0.00 0.00 0.00 77 1010.0
20260507180603 69 0 8.0 12.0 0.00 0.00 0.00 78 1010.0
20260507180503 69 0 8.0 12.0 0.00 0.00 0.00 78 1010.1
20260507180405 70 344 8.0 12.0 0.00 0.00 0.00 78 1010.0
20260507180302 70 331 7.0 14.0 0.00 0.00 0.00 77 1010.1
20260507180203 70 323 9.0 15.0 0.00 0.00 0.00 77 1010.0
20260507180004 70 0 9.0 15.0 0.00 0.00 0.00 78 1010.1
20260507175903 69 0 8.0 15.0 0.00 0.00 0.00 78 1010.0
20260507175803 69 1 8.0 15.0 0.00 0.00 0.00 78 1010.1
20260507175703 69 4 8.0 15.0 0.00 0.00 0.00 79 1010.1
20260507175603 69 351 8.0 15.0 0.00 0.00 0.00 78 1010.2
20260507175504 69 351 10.0 15.0 0.00 0.00 0.00 78 1010.1
20260507175403 69 351 11.0 15.0 0.00 0.00 0.00 78 1010.2
20260507175306 69 350 9.0 15.0 0.00 0.00 0.00 79 1010.2
20260507175203 69 340 7.0 14.0 0.00 0.00 0.00 78 1010.3
20260507175103 69 316 7.0 14.0 0.00 0.00 0.00 78 1010.3
20260507175004 69 39 8.0 14.0 0.00 0.00 0.00 78 1010.4
20260507174903 69 0 9.0 14.0 0.00 0.00 0.00 78 1010.4
20260507174802 69 353 9.0 14.0 0.00 0.00 0.00 78 1010.4
20260507174702 69 351 8.0 14.0 0.00 0.00 0.00 78 1010.3
20260507174602 69 0 8.0 14.0 0.00 0.00 0.00 79 1010.3
20260507174505 69 358 9.0 14.0 0.00 0.00 0.00 79 1010.3
20260507174403 69 327 11.0 14.0 0.00 0.00 0.00 79 1010.4
20260507174303 69 348 10.0 14.0 0.00 0.00 0.00 79 1010.3
20260507174203 69 343 7.0 14.0 0.00 0.00 0.00 78 1010.3
20260507174103 69 324 6.0 14.0 0.00 0.00 0.00 78 1010.4
20260507174001 69 14 6.0 14.0 0.00 0.00 0.00 79 1010.4
20260507173902 69 343 8.0 14.0 0.00 0.00 0.00 79 1010.5
20260507173803 69 348 9.0 14.0 0.00 0.00 0.00 79 1010.4
20260507173702 69 344 9.0 14.0 0.00 0.00 0.00 79 1010.4
20260507173604 69 344 10.0 14.0 0.00 0.00 0.00 79 1010.5
20260507173503 68 327 10.0 14.0 0.00 0.00 0.00 79 1010.4
20260507173402 68 358 10.0 13.0 0.00 0.00 0.00 79 1010.4
20260507173302 68 338 8.0 13.0 0.00 0.00 0.00 79 1010.4
20260507173202 68 324 8.0 11.0 0.00 0.00 0.00 79 1010.5
20260507173102 68 338 9.0 11.0 0.00 0.00 0.00 79 1010.5
20260507173002 68 337 9.0 12.0 0.00 0.00 0.00 79 1010.4
20260507172904 68 350 9.0 12.0 0.00 0.00 0.00 79 1010.5
20260507172804 68 340 8.0 12.0 0.00 0.00 0.00 80 1010.5
20260507172703 68 326 6.0 12.0 0.00 0.00 0.00 80 1010.6
20260507172603 68 0 6.0 12.0 0.00 0.00 0.00 79 1010.7
20260507172504 68 323 7.0 12.0 0.00 0.00 0.00 79 1010.6
20260507172404 68 331 7.0 12.0 0.00 0.00 0.00 79 1010.7
20260507172307 68 336 9.0 12.0 0.00 0.00 0.00 79 1010.7
20260507172204 68 317 9.0 12.0 0.00 0.00 0.00 79 1010.8
20260507172103 68 337 8.0 12.0 0.00 0.00 0.00 79 1010.8
20260507172004 68 348 7.0 12.0 0.00 0.00 0.00 79 1010.8
20260507171903 68 341 6.0 11.0 0.00 0.00 0.00 80 1010.7
20260507171803 68 320 6.0 11.0 0.00 0.00 0.00 79 1010.7
20260507171703 68 353 7.0 11.0 0.00 0.00 0.00 79 1010.7
20260507171602 68 0 7.0 11.0 0.00 0.00 0.00 79 1010.8
20260507171502 68 344 7.0 11.0 0.00 0.00 0.00 80 1010.7
20260507171404 68 340 7.0 12.0 0.00 0.00 0.00 79 1010.7
20260507171303 67 316 7.0 12.0 0.00 0.00 0.00 79 1010.8
20260507171202 67 345 7.0 12.0 0.00 0.00 0.00 79 1010.8
20260507171104 67 353 6.0 12.0 0.00 0.00 0.00 79 1010.7
20260507171004 67 345 7.0 12.0 0.00 0.00 0.00 80 1010.8
20260507170902 67 23 7.0 12.0 0.00 0.00 0.00 79 1010.8
20260507170802 67 10 7.0 12.0 0.00 0.00 0.00 80 1010.9
20260507170703 67 0 7.0 12.0 0.00 0.00 0.00 80 1010.8
20260507170603 67 337 8.0 12.0 0.00 0.00 0.00 80 1010.8
20260507170502 67 323 8.0 12.0 0.00 0.00 0.00 80 1010.8
20260507170404 67 333 7.0 11.0 0.00 0.00 0.00 80 1010.8
20260507170303 67 345 7.0 12.0 0.00 0.00 0.00 80 1010.9
20260507170203 67 302 7.0 12.0 0.00 0.00 0.00 80 1011.0
20260507170103 67 285 7.0 12.0 0.00 0.00 0.00 80 1011.0
20260507170003 67 306 8.0 12.0 0.00 0.00 0.00 80 1011.0
20260507165903 67 334 9.0 12.0 0.00 0.00 0.00 80 1010.9
20260507165803 67 321 8.0 12.0 0.00 0.00 0.00 80 1010.9
20260507165702 67 348 8.0 12.0 0.00 0.00 0.00 79 1010.9
20260507165602 67 343 8.0 12.0 0.00 0.00 0.00 80 1010.9
20260507165505 67 312 9.0 12.0 0.00 0.00 0.00 80 1010.9
20260507165405 67 350 9.0 12.0 0.00 0.00 0.00 80 1010.9
20260507165302 67 355 7.0 12.0 0.00 0.00 0.00 80 1010.9
20260507165203 67 334 6.0 12.0 0.00 0.00 0.00 80 1010.8
20260507165104 67 306 6.0 12.0 0.00 0.00 0.00 80 1010.9
20260507165003 67 338 7.0 12.0 0.00 0.00 0.00 80 1010.9
20260507164903 67 312 8.0 12.0 0.00 0.00 0.00 80 1010.8
20260507164803 67 354 6.0 12.0 0.00 0.00 0.00 81 1010.8
20260507164702 67 0 4.0 12.0 0.00 0.00 0.00 80 1010.8
20260507164602 67 21 6.0 12.0 0.00 0.00 0.00 80 1010.8
20260507164502 67 0 8.0 12.0 0.00 0.00 0.00 80 1010.8
20260507164403 67 0 7.0 12.0 0.00 0.00 0.00 81 1010.8
20260507164304 67 338 6.0 11.0 0.00 0.00 0.00 81 1010.8
20260507164204 66 0 5.0 11.0 0.00 0.00 0.00 80 1010.8
20260507164103 66 327 6.0 11.0 0.00 0.00 0.00 80 1010.8
20260507164003 66 336 7.0 11.0 0.00 0.00 0.00 80 1010.8
20260507163903 66 336 7.0 11.0 0.00 0.00 0.00 80 1010.8
20260507163803 66 341 6.0 11.0 0.00 0.00 0.00 80 1010.9
20260507163703 66 321 4.0 9.0 0.00 0.00 0.00 80 1010.9
20260507163602 66 3 4.0 11.0 0.00 0.00 0.00 80 1010.8
20260507163505 66 16 5.0 11.0 0.00 0.00 0.00 80 1010.8
20260507163402 66 0 6.0 11.0 0.00 0.00 0.00 80 1010.8
20260507163304 67 13 6.0 11.0 0.00 0.00 0.00 80 1010.8
20260507163204 67 18 5.0 11.0 0.00 0.00 0.00 80 1010.8
20260507163102 66 0 4.0 11.0 0.00 0.00 0.00 80 1010.8
20260507163003 66 357 5.0 11.0 0.00 0.00 0.00 80 1010.8
20260507162903 67 340 6.0 11.0 0.00 0.00 0.00 80 1010.6
20260507162802 67 7 7.0 11.0 0.00 0.00 0.00 80 1010.6
20260507162704 67 331 7.0 11.0 0.00 0.00 0.00 81 1010.6
20260507162604 67 0 6.0 12.0 0.00 0.00 0.00 81 1010.6
20260507162503 66 0 6.0 12.0 0.00 0.00 0.00 81 1010.6
20260507162401 66 343 5.0 12.0 0.00 0.00 0.00 81 1010.6
20260507162306 66 13 5.0 12.0 0.00 0.00 0.00 81 1010.5
20260507162204 66 0 6.0 12.0 0.00 0.00 0.00 81 1010.5
20260507162102 66 16 6.0 12.0 0.00 0.00 0.00 80 1010.5
20260507162003 66 16 6.0 12.0 0.00 0.00 0.00 80 1010.5
20260507161902 66 27 6.0 13.0 0.00 0.00 0.00 80 1010.6
20260507161803 66 358 8.0 13.0 0.00 0.00 0.00 81 1010.6
20260507161703 66 355 9.0 13.0 0.00 0.00 0.00 80 1010.6
20260507161602 66 1 9.0 13.0 0.00 0.00 0.00 80 1010.5
20260507161503 66 341 9.0 14.0 0.00 0.00 0.00 81 1010.5
20260507161404 66 0 6.0 14.0 0.00 0.00 0.00 81 1010.5
20260507161305 66 341 5.0 14.0 0.00 0.00 0.00 81 1010.4
20260507161202 66 35 7.0 14.0 0.00 0.00 0.00 82 1010.4
20260507161103 66 4 9.0 14.0 0.00 0.00 0.00 81 1010.4
20260507161003 66 7 8.0 14.0 0.00 0.00 0.00 82 1010.3
20260507160903 66 341 7.0 14.0 0.00 0.00 0.00 82 1010.3
20260507160803 65 23 8.0 14.0 0.00 0.00 0.00 81 1010.3
20260507160704 65 7 8.0 14.0 0.00 0.00 0.00 81 1010.3
20260507160604 65 348 8.0 12.0 0.00 0.00 0.00 82 1010.3
20260507160503 65 0 6.0 13.0 0.00 0.00 0.00 82 1010.1
20260507160404 65 0 7.0 13.0 0.00 0.00 0.00 82 1010.2
20260507160303 65 353 8.0 13.0 0.00 0.00 0.00 82 1010.2
20260507160203 65 357 8.0 13.0 0.00 0.00 0.00 82 1010.1
20260507160104 65 13 8.0 13.0 0.00 0.00 0.00 82 1010.2
20260507160005 65 0 8.0 14.0 0.00 0.00 0.00 82 1010.2
20260507155903 65 348 7.0 14.0 0.00 0.00 0.00 82 1010.1
20260507155802 65 0 7.0 14.0 0.00 0.00 0.00 82 1010.1
20260507155703 65 30 9.0 14.0 0.00 0.00 0.00 83 1010.1
20260507155603 65 25 9.0 14.0 0.00 0.00 0.00 83 1010.1
20260507155504 65 0 8.0 14.0 0.00 0.00 0.00 82 1010.1
20260507155404 65 345 7.0 14.0 0.00 0.00 0.00 82 1010.1
20260507155306 65 338 8.0 14.0 0.00 0.00 0.00 82 1010.1
20260507155204 65 8 10.0 14.0 0.00 0.00 0.00 82 1010.2
20260507155104 65 0 11.0 14.0 0.00 0.00 0.00 83 1010.3
20260507155005 65 354 9.0 13.0 0.00 0.00 0.00 83 1010.2
20260507154902 65 18 9.0 12.0 0.00 0.00 0.00 83 1010.2
20260507154804 65 0 9.0 13.0 0.00 0.00 0.00 83 1010.2
20260507154704 65 331 8.0 13.0 0.00 0.00 0.00 83 1010.2
20260507154604 65 8 7.0 13.0 0.00 0.00 0.00 83 1010.2
20260507154505 65 1 7.0 15.0 0.00 0.00 0.00 83 1010.2
20260507154402 65 4 7.0 15.0 0.00 0.00 0.00 84 1010.3
20260507154302 65 18 6.0 15.0 0.00 0.00 0.00 84 1010.3
20260507154203 65 0 5.0 15.0 0.00 0.00 0.00 84 1010.4
20260507154102 65 337 6.0 15.0 0.00 0.00 0.00 84 1010.4
20260507154004 64 323 9.0 15.0 0.00 0.00 0.00 84 1010.3
20260507153903 64 0 9.0 15.0 0.00 0.00 0.00 84 1010.2
20260507153804 64 7 9.0 15.0 0.00 0.00 0.00 84 1010.3
20260507153703 64 353 10.0 15.0 0.00 0.00 0.00 85 1010.3
20260507153604 64 347 9.0 15.0 0.00 0.00 0.00 85 1010.3
20260507153504 64 37 7.0 12.0 0.00 0.00 0.00 85 1010.4
20260507153401 64 0 7.0 12.0 0.00 0.00 0.00 85 1010.4
20260507153304 64 331 7.0 12.0 0.00 0.00 0.00 84 1010.3
20260507153204 64 350 9.0 12.0 0.00 0.00 0.00 84 1010.4
20260507153103 64 350 8.0 12.0 0.00 0.00 0.00 85 1010.2
20260507153004 64 8 6.0 12.0 0.00 0.00 0.00 85 1010.3
20260507152902 64 11 7.0 12.0 0.00 0.00 0.00 85 1010.2
20260507152803 64 348 9.0 12.0 0.00 0.00 0.00 85 1010.2
20260507152704 64 344 8.0 12.0 0.00 0.00 0.00 85 1010.4
20260507152603 64 3 7.0 12.0 0.00 0.00 0.00 85 1010.4
20260507152502 64 324 8.0 12.0 0.00 0.00 0.00 85 1010.4
20260507152403 64 18 8.0 12.0 0.00 0.00 0.00 85 1010.4
20260507152306 64 16 7.0 12.0 0.00 0.00 0.00 85 1010.5
20260507152203 64 0 8.0 12.0 0.00 0.00 0.00 85 1010.5
20260507152103 64 0 8.0 12.0 0.00 0.00 0.00 85 1010.5
20260507151951 64 345 5.0 12.0 0.00 0.00 0.00 85 1010.5